     2              OBSERVATION DATA    G (GPS)             RINEX VERSION / TYPE
ASRINEXO V2.9.7 UX USGS/MENLO_PARK 06-OCT-00 13:14          PGM / RUN BY / DATE
                                                            COMMENT
National Earthquake Hazard Reduction Program                COMMENT
Crustal Strain Project                                      COMMENT
345 Middlefield Road, MS/977                                COMMENT
U.S. Geological Survey, Menlo Park, California 94025        COMMENT
Contact: kwendt@isdmnl.wr.usgs.gov (Ph: 650-329-4866)       COMMENT
HI's are vertical to base of antenna                        COMMENT
BIT 2 OF LLI (+4) FLAGS DATA COLLECTED UNDER "AS" CONDITION COMMENT
02fs                                                        MARKER NAME
WRT                                                         OBSERVER / AGENCY
175 ASHTECH Z-XII3 CD00                                     REC # / TYPE / VERS
CR16374 ASH700936E_C NONE                                   ANT # / TYPE
 -2512359.0000 -4174436.0000  4104720.0000                  APPROX POSITION XYZ
        0.5107        0.0000        0.0000                  ANTENNA: DELTA H/E/N
     1     1                                                WAVELENGTH FACT L1/2
     5    C1    L1    L2    P1    P2                        # / TYPES OF OBSERV
    30                                                      INTERVAL
  2000     9    14     0     0   30.000000                  TIME OF FIRST OBS
                                                            END OF HEADER
 00  9 14  0  0 30.0000000  0  9 13 08 01 28 03 20 27 19 22
  21596542.549   -18116637.666 9 -14097543.29547  21596542.835    21596550.6614
  23862708.658    -1143013.074 7   -866109.94945  23862708.182    23862723.0004
  20539261.657   -20955164.562 9 -16315949.22948  20539261.355    20539270.2704
  20949502.063   -21641933.017 9 -16527045.73847  20949501.742    20949509.4694
  23989600.725    -3450389.045 7  -2676565.47945  23989600.825    23989613.7514
  23110155.464    -7679872.582 8  -5714762.44445  23110155.032    23110166.8974
  22074977.649   -13345169.248 8 -10380309.46547  22074977.431    22074987.7174
  20509143.777   -23762750.517 9 -18495452.85647  20509143.595    20509152.6044
  22554080.234    -9701400.184 8  -7543303.44046  22554079.416    22554090.2864
 00  9 14  0  1  0.0000000  0  9 13 08 01 28 03 20 27 19 22
  21584695.139   -18178896.258 9 -14146056.44847  21584695.386    21584703.1364
  23845796.838    -1231884.681 8   -935360.31145  23845796.449    23845811.0974
  20543262.312   -20934140.938 9 -16299567.18848  20543262.006    20543270.9364
  20952306.611   -21627194.731 9 -16515561.35247  20952306.320    20952314.0724
  23978296.266    -3509793.805 7  -2722854.74445  23978296.281    23978309.1784
  23130811.721    -7571324.652 8  -5630179.85145  23130811.173    23130823.1584
  22063956.385   -13403086.198 8 -10425439.49447  22063956.171    22063966.3814
  20505713.196   -23780778.223 9 -18509500.40247  20505713.070    20505722.0544
  22571152.106    -9611686.211 8  -7473396.51646  22571151.447    22571162.3104
 00  9 14  0  1 30.0000000  0  9 13 08 01 28 03 20 27 19 22
  21572893.309   -18240915.272 9 -14194382.91247  21572893.537    21572901.2664
  23828911.560    -1320616.597 7  -1004501.83645  23828911.068    23828925.6024
  20547333.085   -20912748.854 9 -16282898.03447  20547332.758    20547341.6984
  20955218.579   -21611892.106 9 -16503637.21647  20955218.264    20955226.0624
  23967053.216    -3568875.933 7  -2768892.61845  23967053.234    23967066.0244
  23151502.538    -7462593.696 8  -5545454.59745  23151502.129    23151514.1044
  22052972.682   -13460805.739 8 -10470415.69147  22052972.445    22052982.5804
  20502337.962   -23798515.326 9 -18523321.49947  20502337.807    20502346.8084
  22588294.033    -9521605.383 8  -7403203.72146  22588293.320    22588304.1654
 00  9 14  0  2  0.0000000  0  9 13 08 01 28 03 20 27 19 22
  21561135.579   -18302702.617 9 -14242528.85747  21561135.756    21561143.4714
  23812051.297    -1409217.072 8  -1073540.95445  23812050.840    23812065.3124
  20551472.449   -20890996.396 9 -16265948.06947  20551472.122    20551481.0444
  20958236.210   -21596034.549 9 -16491280.66647  20958235.865    20958243.6524
  23955870.287    -3627641.423 8  -2814683.73445  23955870.306    23955883.2704
  23172226.093    -7353691.045 8  -5460595.57045  23172225.682    23172237.6894
  22042024.925   -13518336.356 8 -10515244.66247  22042024.684    22042034.7864
  20499016.319   -23815970.782 9 -18536923.12847  20499016.157    20499025.0994
  22605503.520    -9431168.730 8  -7332733.68546  22605502.846    22605513.7074
 00  9 14  0  2 30.0000000  0  9 13 08 01 28 03 20 27 19 22
  21549421.952   -18364258.152 9 -14290494.16747  21549422.076    21549429.8814
  23795215.805    -1497687.467 7  -1142478.67445  23795215.336    23795229.6234
  20555680.133   -20868884.983 9 -16248718.40547  20555679.809    20555688.7224
  20961358.852   -21579624.894 9 -16478493.91947  20961358.503    20961366.2564
  23944747.892    -3686089.392 7  -2860227.39445  23944747.796    23944760.9894
  23192981.354    -7244621.460 8  -5375606.47845  23192981.033    23192993.0674
  22031112.707   -13575680.070 8 -10559928.03347  22031112.528    22031122.5664
  20495747.818   -23833146.771 9 -18550307.00347  20495747.649    20495756.5914
  22622779.963    -9340380.898 8  -7261989.98646  22622779.296    22622790.1044
 00  9 14  0  3  0.0000000  0  9 13 08 01 28 03 20 27 19 22
  21537753.176   -18425577.644 9 -14338275.54547  21537753.304    21537761.1394
  23778405.399    -1586024.617 8  -1211312.65145  23778405.103    23778419.5054
  20559956.739   -20846411.258 9 -16231206.40947  20559956.398    20559965.3074
  20964586.909   -21562661.361 9 -16465275.57147  20964586.539    20964594.2814
  23933686.913    -3744214.305 7  -2905519.39345  23933686.905    23933700.0844
  23213768.640    -7135385.143 8  -5290487.46345  23213768.233    23213780.3624
  22020236.687   -13632833.981 8 -10604463.50047  22020236.498    22020246.4394
  20492533.014   -23850040.729 9 -18563471.10247  20492532.835    20492541.7584
  22640123.143    -9249242.128 8  -7190972.83246  22640122.459    22640133.3394
 00  9 14  0  3 30.0000000  0  9 13 08 01 28 03 20 27 19 22
  21526129.748   -18486658.662 9 -14385871.10647  21526129.930    21526137.8124
  23761620.831    -1674227.251 8  -1280041.80145  23761620.563    23761634.9084
  20564302.526   -20823574.177 9 -16213411.28947  20564302.200    20564311.0944
  20967920.259   -21545144.343 9 -16451625.94347  20967919.941    20967927.6294
  23922688.170    -3802013.013 7  -2950557.24345  23922687.929    23922701.1234
  23234587.216    -7025984.013 8  -5205240.03745  23234586.760    23234598.9374
  22009396.989   -13689797.191 8 -10648850.35547  22009396.762    22009406.6444
  20489371.878   -23866652.398 9 -18576415.24047  20489371.703    20489380.6744
  22657532.509    -9157755.156 8  -7119684.34446  22657531.947    22657542.7464
 00  9 14  0  4  0.0000000  0  9 13 08 01 28 03 20 27 19 22
  21514552.232   -18547498.712 9 -14433278.90647  21514552.435    21514560.2944
  23744862.090    -1762294.164 8  -1348665.17245  23744861.875    23744875.9534
  20568717.640   -20800372.505 9 -16195332.07147  20568717.353    20568726.2414
  20971358.995   -21527073.881 9 -16437545.06047  20971358.670    20971366.3084
  23911751.826    -3859482.164 7  -2995338.28045  23911751.639    23911764.8494
  23255436.771    -6916420.418 8  -5119866.00145  23255436.226    23255448.4454
  21998593.604   -13746568.995 8 -10693088.06847  21998593.421    21998603.2154
  20486264.556   -23882981.500 9 -18589139.20547  20486264.404    20486273.3094
  22675007.833    -9065922.118 8  -7048126.20846  22675007.239    22675018.1204
 00  9 14  0  4 30.0000000  0  9 13 08 01 28 03 20 27 19 22
  21503020.715   -18608097.481 9 -14480498.69047  21503020.868    21503028.6984
  23728129.189    -1850226.445 8  -1417183.64145  23728128.849    23728142.8494
  20573202.013   -20776806.933 9 -16176969.29347  20573201.729    20573210.6334
  20974902.572   -21508452.495 9 -16423034.88447  20974902.217    20974909.8334
  23900878.705    -3916619.933 7  -3039861.05445  23900878.536    23900891.8384
  23276316.267    -6806698.412 8  -5034368.54345  23276315.761    23276328.0254
  21987826.408   -13803150.586 8 -10737177.58047  21987826.245    21987836.0084
  20483210.706   -23899029.576 9 -18601644.18647  20483210.558    20483219.4664
  22692548.227    -8973746.660 8  -6976301.25946  22692547.617    22692558.5774
 00  9 14  0  5  0.0000000  0  9 13 08 01 28 03 20 27 19 22
  21491535.488   -18668452.583 9 -14527528.59847  21491535.630    21491543.5014
  23711422.007    -1938022.576 8  -1485596.05645  23711421.674    23711435.6284
  20577755.853   -20752876.346 9 -16158322.09147  20577755.556    20577764.4594
  20978550.904   -21489280.269 9 -16408095.47847  20978550.562    20978558.1874
  23890069.389    -3973423.070 7  -3084123.10945  23890069.069    23890082.3574
  23297225.457    -6696820.069 8  -4948749.26445  23297225.066    23297237.3994
  21977095.551   -13859541.312 8 -10781118.34047  21977095.413    21977105.1934
  20480210.371   -23914796.155 9 -18613929.81447  20480210.256    20480219.1524
  22710153.486    -8881230.976 8  -6904211.19246  22710152.878    22710163.8254
 00  9 14  0  5 30.0000000  0  9 13 08 01 28 03 20 27 19 22
  21480096.736   -18728562.974 9 -14574367.82747  21480096.959    21480104.8144
  23694740.814    -2025682.168 8  -1553902.05945  23694740.453    23694754.2214
  20582379.230   -20728580.371 9 -16139390.16947  20582378.946    20582387.8344
  20982303.824   -21469558.260 9 -16392727.67047  20982303.504    20982311.1794
  23879324.344    -4029889.092 7  -3128122.48945  23879324.148    23879337.1244
  23318164.152    -6586788.226 8  -4863010.36645  23318163.621    23318175.8144
  21966401.105   -13915741.159 8 -10824910.36147  21966400.907    21966410.7124
  20477263.541   -23930281.788 9 -18625996.52547  20477263.416    20477272.3314
  22727822.756    -8788378.255 8  -6831858.49046  22727822.225    22727833.1524
 00  9 14  0  6  0.0000000  0  9 13 08 01 28 03 20 27 19 22
  21468705.125   -18788426.231 9 -14621014.47747  21468705.285    21468713.1844
  23678085.769    -2113204.854 8  -1622101.39045  23678085.303    23678099.1204
  20587072.221   -20703918.475 9 -16120173.11547  20587071.967    20587080.8394
  20986161.131   -21449287.714 9 -16376932.43647  20986160.823    20986168.5064
  23868643.752    -4086015.119 8  -3171856.90845  23868643.633    23868656.7224
  23339131.289    -6476605.770 8  -4777154.13545  23339130.896    23339143.1754
  21955742.912   -13971750.198 8 -10868553.71247  21955742.736    21955752.5604
  20474370.168   -23945486.804 9 -18637844.57447  20474370.019    20474378.8984
  22745555.780    -8695191.779 8  -6759245.72946  22745555.130    22745566.0204
 00  9 14  0  6 30.0000000  0 10 13 08 01 28 03 20 27 19 22 31
  21457360.781   -18848040.552 9 -14667467.15447  21457361.038    21457368.9234
  23661456.722    -2200590.141 8  -1690193.67645  23661456.255    23661470.1124
  20591834.941   -20678890.368 9 -16100670.69747  20591834.650    20591843.5284
  20990122.618   -21428469.921 9 -16360710.77647  20990122.311    20990129.9994
  23858028.510    -4141798.580 7  -3215324.40845  23858028.370    23858041.2184
  23360126.603    -6366275.867 8  -4691182.98745  23360126.151    23360138.3914
  21945121.024   -14027568.602 8 -10912048.53547  21945120.819    21945130.6524
  20471530.104   -23960411.516 9 -18649474.20447  20471529.935    20471538.7884
  22763351.562    -8601674.384 8  -6686375.10646  22763351.010    22763361.8254
  24580326.951    -1879931.131 7  -1433582.95444  24580325.665    24580342.9344
 00  9 14  0  7  0.0000000  0 10 13 08 01 28 03 20 27 19 22 31
  21446064.207   -18907404.495 9 -14713724.73847  21446064.459    21446072.3104
  23644853.854    -2287837.154 8  -1758178.19945  23644853.479    23644867.3934
  20596667.438   -20653495.208 9 -16080882.27647  20596667.214    20596676.0714
  20994188.172   -21407105.142 9 -16344062.88847  20994187.856    20994195.5994
  23847478.940    -4197236.288 7  -3258522.47645  23847478.844    23847491.7994
  23381149.629    -6255800.656 8  -4605098.63245  23381149.176    23381161.4554
  21934535.534   -14083195.788 8 -10955394.36247  21934535.287    21934545.1124
  20468743.388   -23975055.639 9 -18660885.19647  20468743.224    20468752.0814
  22781210.015    -8507828.024 8  -6613248.16046  22781209.507    22781220.3274
  24562614.138    -1973010.194 7  -1506111.76844  24562611.978    24562630.0974
 00  9 14  0  7 30.0000000  0 10 13 08 01 28 03 20 27 19 22 31
  21434815.558   -18966516.718 9 -14759786.16047  21434815.786    21434823.5804
  23628277.459    -2374945.648 8  -1826054.81345  23628277.145    23628291.0294
  20601569.877   -20627732.823 9 -16060807.69647  20601569.660    20601578.4934
  20998357.456   -21385194.930 9 -16326989.98947  20998357.170    20998364.9774
  23836995.512    -4252325.618 7  -3301449.08245  23836995.542    23837008.3844
  23402199.519    -6145183.149 8  -4518903.38045  23402199.194    23402211.2804
  21923986.297   -14138631.742 8 -10998591.13047  21923986.090    21923995.9294
  20466009.914   -23989419.933 9 -18672078.13447  20466009.786    20466018.6364
  22799130.483    -8413655.871 8  -6539867.34246  22799129.900    22799140.6914
  24544904.793    -2066071.531 7  -1578626.71144  24544903.166    24544920.6214
 00  9 14  0  8  0.0000000  0 10 13 08 01 28 03 20 27 19 22 31
  21423615.306   -19025374.463 9 -14805649.30047  21423615.520    21423623.2944
  23611727.778    -2461914.363 8  -1893822.50145  23611727.402    23611741.0824
  20606542.516   -20601601.709 9 -16040445.80747  20606542.268    20606551.0794
  21002630.520   -21362739.411 9 -16309492.17247  21002630.282    21002638.0944
  23826579.195    -4307063.546 8  -3344101.84545  23826579.033    23826591.8904
  23423276.252    -6034425.353 8  -4432598.82145  23423275.863    23423288.0104
  21913473.632   -14193875.839 8 -11041638.44247  21913473.438    21913483.2174
  20463329.840   -24003503.793 9 -18683052.56247  20463329.732    20463338.5524
  22817112.440    -8319160.377 8  -6466234.56346  22817111.912    22817122.6474
  24527199.446    -2159111.004 7  -1651124.66844  24527198.474    24527215.4404
 00  9 14  0  8 30.0000000  0 10 13 08 01 28 03 20 27 19 22 31
  21412463.718   -19083976.352 9 -14851313.07047  21412463.940    21412471.6854
  23595204.822    -2548743.476 8  -1961481.40145  23595204.370    23595217.9874
  20611585.253   -20575102.036 9 -16019796.72347  20611584.967    20611593.8154
  21007007.021   -21339740.663 9 -16291571.05847  21007006.782    21007014.6064
  23816230.107    -4361447.815 8  -3386479.03045  23816230.007    23816242.8984
  23444378.812    -5923530.813 8  -4346187.72945  23444378.465    23444390.8194
  21902997.509   -14248928.541 8 -11084536.60347  21902997.271    21903007.0074
  20460702.949   -24017308.348 9 -18693809.34247  20460702.810    20460711.6494
  22835155.398    -8224345.195 8  -6392352.68046  22835154.701    22835165.4704
  24509499.016    -2252126.258 7  -1723603.74144  24509498.177    24509514.7964
 00  9 14  0  9  0.0000000  0 10 13 08 01 28 03 20 27 19 22 31
  21401361.097   -19142320.534 9 -14896776.02347  21401361.356    21401369.1114
  23578708.415    -2635432.126 8  -2029030.88445  23578707.901    23578721.5904
  20616698.113   -20548233.527 9 -15998860.23647  20616697.837    20616706.7194
  21011486.705   -21316199.593 9 -16273227.36147  21011486.491    21011494.3054
  23805948.982    -4415475.606 7  -3428578.48845  23805948.765    23805961.4604
  23465507.094    -5812502.097 8  -4259672.07745  23465506.717    23465518.9624
  21892557.777   -14303789.623 8 -11127285.44847  21892557.528    21892567.2754
  20458129.204   -24030833.497 9 -18704348.40547  20458129.082    20458137.8924
  22853258.370    -8129212.827 8  -6318223.64846  22853257.839    22853268.7164
  24491803.890    -2345114.133 7  -1796061.44345  24491803.008    24491819.7644
 00  9 14  0  9 30.0000000  0 10 13 08 01 28 03 20 27 19 22 31
  21390307.794   -19200405.922 9 -14942037.32247  21390308.028    21390315.8174
  23562238.757    -2721980.532 8  -2096471.07345  23562238.302    23562251.8204
  20621881.185   -20520996.047 9 -15977636.23747  20621880.919    20621889.8534
  21016069.399   -21292117.624 9 -16254462.18547  21016069.158    21016076.9414
  23795736.048    -4469144.725 8  -3470398.38045  23795735.835    23795748.4284
  23486660.229    -5701342.579 8  -4173054.52145  23486659.764    23486672.1504
  21882154.414   -14358459.489 8 -11169885.28747  21882154.180    21882163.9004
  20455608.395   -24044080.119 9 -18714670.43447  20455608.277    20455617.1024
  22871421.502    -8033766.270 8  -6243849.79246  22871420.834    22871431.7384
  24474114.368    -2438071.589 7  -1868495.48545  24474113.683    24474130.2934
 00  9 14  0 10  0.0000000  0 10 13 08 01 28 03 20 27 19 22 31
  21379304.038   -19258230.571 9 -14987095.44447  21379304.296    21379312.1024
  23545795.819    -2808387.632 8  -2163801.12645  23545795.366    23545808.9024
  20627134.683   -20493388.696 9 -15956124.03247  20627134.452    20627143.3834
  21020754.798   -21267495.663 9 -16235276.23647  21020754.574    21020762.3634
  23785591.995    -4522452.014 7  -3511936.39445  23785591.688    23785604.2964
  23507837.679    -5590054.633 8  -4086336.86845  23507837.163    23507849.5584
  21871787.555   -14412937.570 8 -11212335.68647  21871787.297    21871796.9404
  20453140.661   -24057048.038 9 -18724775.29547  20453140.565    20453149.4114
  22889643.790    -7938008.024 8  -6169233.04946  22889643.169    22889654.0654
  24456431.246    -2530995.436 7  -1940903.30945  24456430.895    24456447.0264
 00  9 14  0 10 30.0000000  0 10 13 08 01 28 03 20 27 19 22 31
  21368350.331   -19315792.163 9 -15031948.58747  21368350.629    21368358.4364
  23529380.012    -2894652.784 8  -2231020.61545  23529379.639    23529392.9934
  20632458.714   -20465410.967 9 -15934323.21947  20632458.466    20632467.3814
  21025542.742   -21242334.874 9 -16215670.42247  21025542.540    21025550.2974
  23775517.026    -4575395.049 7  -3553190.53445  23775516.773    23775529.3244
  23529039.055    -5478640.811 8  -3999521.16545  23529038.615    23529051.2214
  21861457.099   -14467223.723 8 -11254636.53147  21861456.908    21861466.4634
  20450725.935   -24069737.361 9 -18734663.06247  20450725.837    20450734.7084
  22907924.696    -7841941.361 8  -6094375.98746  22907924.094    22907935.0344
  24438755.298    -2623882.226 7  -2013282.30645  24438754.963    24438771.2164
 00  9 14  0 11  0.0000000  0 10 13 08 01 28 03 20 27 19 22 31
  21357446.987   -19373089.462 9 -15076595.79347  21357447.287    21357455.0674
  23512991.298    -2980775.943 8  -2298129.40545  23512990.885    23513004.1584
  20637853.201   -20437062.677 9 -15912233.66447  20637852.962    20637861.8624
  21030433.039   -21216636.465 9 -16195645.68247  21030432.764    21030440.5504
  23765511.874    -4627971.325 7  -3594158.90845  23765511.659    23765524.2844
  23550264.010    -5367104.037 8  -3912609.62145  23550263.402    23550276.0404
  21851163.281   -14521318.180 8 -11296788.01047  21851163.065    21851172.5964
  20448364.180   -24082148.647 9 -18744334.18147  20448364.052    20448372.9454
  22926263.828    -7745569.269 8  -6019280.93346  22926263.118    22926274.1734
  24421086.864    -2716729.251 7  -2085630.31245  24421086.694    24421102.8094
 00  9 14  0 11 30.0000000  0 10 13 08 01 28 03 20 27 19 22 31
  21346594.388   -19430120.387 9 -15121035.43247  21346594.630    21346602.3924
  23496629.647    -3066755.943 8  -2365126.64045  23496629.392    23496642.5774
  20643318.348   -20408343.148 9 -15889854.82147  20643318.108    20643326.9964
  21035425.369   -21190401.341 9 -16175202.72147  21035425.108    21035432.8904
  23755577.065    -4680177.738 7  -3634839.07045  23755576.937    23755589.9144
  23571511.812    -5255446.826 8  -3825604.22545  23571511.112    23571523.8534
  21840906.037   -14575220.419 8 -11338789.70947  21840905.796    21840915.2824
  20446055.267   -24094281.966 9 -18753788.69747  20446055.151    20446064.0144
  22944660.597    -7648893.882 8  -5943949.55246  22944659.892    22944670.9544
  24403426.716    -2809533.019 7  -2157944.56145  24403426.350    24403442.3954
 00  9 14  0 12  0.0000000  0 10 13 08 01 28 03 20 27 19 22 31
  21335792.544   -19486884.181 9 -15165266.92447  21335792.818    21335800.5444
  23480295.158    -3152593.277 8  -2432012.76045  23480294.871    23480308.1044
  20648854.081   -20379252.670 9 -15867186.92447  20648853.816    20648862.7454
  21040519.522   -21163631.431 9 -16154343.05747  21040519.242    21040527.0414
  23745713.206    -4732012.349 8  -3675229.56445  23745713.065    23745725.9274
  23592781.760    -5143672.695 8  -3738507.77045  23592781.187    23592793.9704
  21830685.175   -14628931.003 8 -11380642.05747  21830684.991    21830694.5214
  20443799.115   -24106138.212 9 -18763027.31847  20443798.992    20443807.8624
  22963114.420    -7551918.537 8  -5868384.43346  22963113.717    22963124.7584
  24385775.338    -2902290.789 7  -2230223.04645  24385774.870    24385790.7494
 00  9 14  0 12 30.0000000  0 10 13 08 01 28 03 20 27 19 22 31
  21325042.064   -19543378.306 9 -15209288.28047  21325042.300    21325050.0364
  23463987.970    -3238287.444 8  -2498787.25945  23463987.610    23464000.9374
  20654460.537   -20349790.798 9 -15844229.63447  20654460.255    20654469.1894
  21045715.143   -21136328.035 9 -16133067.68147  21045714.885    21045722.6954
  23735920.695    -4783472.520 8  -3715328.26845  23735920.455    23735933.2504
  23614073.452    -5031784.429 7  -3651322.35145  23614072.878    23614085.9624
  21820500.859   -14682449.921 8 -11422345.06447  21820500.632    21820510.1734
  20441595.581   -24117717.633 9 -18772050.22347  20441595.478    20441604.3534
  22981624.861    -7454646.354 8  -5792588.00946  22981624.083    22981635.1364
  24368133.296    -2994999.429 8  -2302463.24045  24368132.673    24368148.5914
 00  9 14  0 13  0.0000000  0 10 13 08 01 28 03 20 27 19 22 31
  21314343.155   -19599601.130 9 -15253098.23647  21314343.387    21314351.1604
  23447708.207    -3323837.683 8  -2565449.64945  23447707.770    23447721.1514
  20660137.727   -20319957.182 9 -15820982.67247  20660137.414    20660146.3504
  21051012.034   -21108492.572 9 -16111377.71047  21051011.798    21051019.6134
  23726199.635    -4834555.812 7  -3755133.25745  23726199.335    23726212.2124
  23635386.495    -4919784.712 8  -3564050.09745  23635386.013    23635399.0654
  21810353.021   -14735777.093 8 -11463898.65447  21810352.777    21810362.3504
  20439444.688   -24129020.584 9 -18780857.69647  20439444.577    20439453.4574
  23000191.103    -7357080.678 8  -5716562.89646  23000190.320    23000201.3234
  24350500.990    -3087655.787 7  -2374662.66445  24350500.630    24350516.6364
 00  9 14  0 13 30.0000000  0 10 13 08 01 28 03 20 27 19 22 31
  21303696.212   -19655551.242 9 -15296695.69647  21303696.428    21303704.1674
  23431455.905    -3409243.339 8  -2631999.33745  23431455.501    23431468.8504
  20665885.784   -20289750.946 9 -15797445.35547  20665885.505    20665894.4364
  21056410.153   -21080125.790 9 -16089273.71947  21056409.861    21056417.6774
  23716550.871    -4885259.321 7  -3794642.36845  23716550.504    23716563.2924
  23656720.251    -4807675.904 7  -3476692.86245  23656719.673    23656732.8484
  21800241.753   -14788912.013 9 -11505302.44447  21800241.507    21800251.0384
  20437346.469   -24140046.745 9 -18789449.49247  20437346.370    20437355.2504
  23018812.423    -7259223.679 8  -5640310.76646  23018811.808    23018822.9614
  24332879.069    -3180256.249 7  -2446818.58645  24332878.900    24332895.0724
 00  9 14  0 14  0.0000000  0 10 13 08 01 28 03 20 27 19 22 31
  21293101.590   -19711225.841 9 -15340078.47547  21293101.852    21293109.5584
  23415231.258    -3494503.858 8  -2698435.95645  23415230.823    23415244.1894
  20671704.798   -20259171.768 9 -15773617.44247  20671704.547    20671713.4954
  21061909.014   -21051229.011 9 -16066756.75747  21061908.714    21061916.5264
  23706974.889    -4935580.611 7  -3833853.64345  23706974.564    23706987.2834
  23678074.224    -4695460.929 8  -3389252.82545  23678073.830    23678086.7384
  21790167.113   -14841854.600 8 -11546556.38347  21790166.851    21790176.3484
  20435300.864   -24150796.204 9 -18797825.68147  20435300.776    20435309.6694
  23037489.190    -7161077.787 8  -5563833.53046  23037488.458    23037499.6494
  24315268.634    -3272797.720 7  -2518928.57045  24315268.521    24315284.8794
 00  9 14  0 14 30.0000000  0 10 13 08 01 28 03 20 27 19 22 31
  21282559.561   -19766624.573 9 -15383246.28447  21282559.791    21282567.5314
  23399034.287    -3579619.131 8  -2764759.37645  23399033.906    23399046.9544
  20677594.776   -20228219.821 9 -15749499.05247  20677594.489    20677603.4684
  21067508.402   -21021804.048 9 -16043828.21447  21067508.068    21067515.9074
  23697471.998    -4985517.284 8  -3872765.20245  23697471.832    23697484.6004
  23699447.876    -4583143.021 8  -3301732.67545  23699447.423    23699460.5974
  21780128.898   -14894605.181 9 -11587660.68247  21780128.671    21780138.1514
  20433307.728   -24161269.889 9 -18805986.97647  20433307.695    20433316.5494
  23056220.207    -7062646.258 8  -5487133.73146  23056219.372    23056230.6114
  24297670.179    -3365277.376 7  -2590990.31445  24297669.994    24297686.2824
 00  9 14  0 15  0.0000000  0 10 13 08 01 28 03 20 27 19 22 31
  21272070.584   -19821744.285 9 -15426196.69047  21272070.842    21272078.5534
  23382865.080    -3664587.788 8  -2830968.51945  23382864.810    23382877.8714
  20683555.952   -20196893.549 9 -15725088.98147  20683555.672    20683564.6434
  21073208.195   -20991851.297 9 -16020488.41547  21073207.882    21073215.7214
  23688043.218    -5035065.888 7  -3911374.36545  23688043.010    23688055.8844
  23720840.902    -4470723.587 8  -3214133.37445  23720840.383    23720853.6124
  21770127.508   -14947162.712 8 -11628614.55447  21770127.235    21770136.7724
  20431367.305   -24171467.186 9 -18813932.91047  20431367.229    20431376.0224
  23075005.039    -6963931.298 8  -5410213.05646  23075004.317    23075015.5244
  24280084.290    -3457691.115 7  -2663000.75245  24280084.078    24280100.3034
 00  9 14  0 15 30.0000000  0 10 13 08 01 28 03 20 27 19 22 31
  21261634.655   -19876584.957 9 -15468929.64847  21261634.986    21261642.7214
  23366723.829    -3749410.831 8  -2897064.25445  23366723.534    23366736.5154
  20689588.169   -20165194.113 9 -15700388.13047  20689587.896    20689596.8644
  21079007.952   -20961373.477 9 -15996739.47047  21079007.627    21079015.4574
  23678688.207    -5084225.309 7  -3949680.35945  23678688.035    23678700.9684
  23742252.242    -4358206.895 8  -3126458.30845  23742251.921    23742265.2434
  21760162.588   -14999528.600 8 -11669419.09847  21760162.343    21760171.8494
  20429479.061   -24181389.763 9 -18821664.76847  20429478.976    20429487.7764
  23093843.022    -6864937.469 8  -5333075.12445  23093842.176    23093853.5164
  24262511.254    -3550037.260 7  -2734958.53345  24262510.933    24262527.2044
 00  9 14  0 16  0.0000000  0 10 13 08 01 28 03 20 27 19 22 31
  21251252.405   -19931143.782 9 -15511442.99347  21251252.764    21251260.4564
  23350610.371    -3834087.307 8  -2963045.77145  23350610.020    23350622.8514
  20695691.612   -20133120.822 9 -15675395.96547  20695691.311    20695700.2154
  21084907.495   -20930371.641 9 -15972582.20547  21084907.112    21084914.9584
  23669408.142    -5132992.473 7  -3987680.60445  23669407.820    23669420.6294
  23763681.768    -4245595.547 8  -3038709.51945  23763681.394    23763694.7464
  21750234.294   -15051702.154 8 -11710073.75547  21750234.037    21750243.5404
  20427643.135   -24191037.432 9 -18829182.41647  20427643.087    20427651.8554
  23112733.531    -6765666.878 8  -5255721.50145  23112732.778    23112744.0644
  24244951.787    -3642311.979 7  -2806860.69845  24244951.449    24244967.4924
 00  9 14  0 16 30.0000000  0 10 13 08 01 28 03 20 27 19 22 31
  21240924.059   -19985419.573 9 -15553735.78547  21240924.394    21240932.1154
  23334524.844    -3918617.124 8  -3028912.94745  23334524.365    23334537.2344
  20701866.120   -20100673.764 9 -15650112.55947  20701865.806    20701874.6694
  21090906.336   -20898847.288 9 -15948017.78347  21090906.009    21090913.8554
  23660203.089    -5181365.277 8  -4025373.56445  23660202.833    23660215.4804
  23785129.014    -4132892.552 7  -2950889.26145  23785128.408    23785141.6914
  21740342.482   -15103683.742 9 -11750578.83647  21740342.204    21740351.6934
  20425859.454   -24200410.817 9 -18836486.33747  20425859.362    20425868.1604
  23131676.341    -6666122.247 8  -5178154.35445  23131675.464    23131686.9224
  24227406.601    -3734512.393 7  -2878704.96545  24227406.107    24227422.1534
 00  9 14  0 17  0.0000000  0 10 13 08 01 28 03 20 27 19 22 31
  21230650.105   -20039409.687 9 -15595805.97947  21230650.437    21230658.1174
  23318467.306    -4002999.018 8  -3094664.89045  23318466.782    23318479.7004
  20708111.935   -20067851.934 9 -15624537.12847  20708111.613    20708120.5034
  21097004.456   -20866801.537 9 -15923047.07347  21097004.138    21097011.9864
  23651073.536    -5229340.891 7  -4062757.03245  23651073.283    23651085.8094
  23806592.844    -4020100.119 8  -2862999.35245  23806592.179    23806605.5984
  21730487.374   -15155472.816 8 -11790933.90947  21730487.097    21730496.5094
  20424127.957   -24209509.703 9 -18843576.35947  20424127.871    20424136.6754
  23150670.634    -6566306.045 8  -5100375.59945  23150669.855    23150681.4014
  24209875.813    -3826634.652 7  -2950488.33745  24209875.552    24209891.6404
 00  9 14  0 17 30.0000000  0 10 13 08 01 28 03 20 27 19 22 31
  21220430.927   -20093111.850 9 -15637651.79547  21220431.271    21220438.9144
  23302437.919    -4087232.575 8  -3160301.30845  23302437.478    23302450.4404
  20714429.116   -20034654.815 9 -15598669.25847  20714428.819    20714437.7334
  21103201.637   -20834235.334 9 -15897670.81347  21103201.298    21103209.1324
  23642020.261    -5276916.544 7  -4099828.86245  23642020.060    23642032.4324
  23828073.203    -3907220.544 7  -2775041.50745  23828072.679    23828086.2804
  21720668.917   -15207068.902 8 -11831138.59447  21720668.614    21720678.0304
  20422448.749   -24218334.083 9 -18850452.48647  20422448.683    20422457.4224
  23169716.233    -6466221.208 7  -5022387.50845  23169715.390    23169726.9234
  24192360.990    -3918675.339 7  -3022208.11345  24192360.627    24192376.6844
 00  9 14  0 18  0.0000000  0 10 13 08 01 28 03 20 27 19 22 31
  21210266.623   -20146525.731 9 -15679272.97347  21210266.918    21210274.5334
  23286437.037    -4171317.607 8  -3225821.93945  23286436.626    23286449.4704
  20720817.730   -20001082.413 9 -15572508.95347  20720817.457    20720826.3684
  21109497.467   -20801150.688 9 -15871890.58047  21109497.139    21109504.9464
  23633043.163    -5324090.315 7  -4136587.54645  23633043.055    23633055.5674
  23849569.387    -3794257.181 7  -2687018.40845  23849568.896    23849582.7504
  21710886.978   -15258472.522 8 -11871193.32347  21710886.766    21710896.1564
  20420821.589   -24226884.861 9 -18857115.41647  20420821.509    20420830.2344
  23188812.366    -6365871.179 7  -4944192.77545  23188811.580    23188822.9844
  24174862.075    -4010631.655 7  -3093862.15245  24174861.772    24174877.6974
 00  9 14  0 18 30.0000000  0 10 13 08 01 28 03 20 27 19 22 31
  21200157.604   -20199649.073 9 -15720667.76047  21200157.836    21200165.4554
  23270464.207    -4255253.432 8  -3291226.28645  23270463.943    23270476.8204
  20727277.887   -19967134.227 9 -15546055.83747  20727277.624    20727286.5414
  21115891.683   -20767548.980 9 -15845707.43847  21115891.333    21115899.1264
  23624143.051    -5370859.395 7  -4173030.88045  23624143.026    23624155.5634
  23871081.592    -3681212.637 7  -2598932.04245  23871080.964    23871094.5944
  21701141.857   -15309683.363 8 -11911097.84347  21701141.642    21701151.0364
  20419246.462   -24235162.096 9 -18863565.19447  20419246.380    20419255.1124
  23207958.371    -6265257.995 8  -4865793.00345  23207957.634    23207969.0724
  24157379.905    -4102500.042 7  -3165447.67545  24157379.535    24157395.4774
 00  9 14  0 19  0.0000000  0 10 13 08 01 28 03 20 27 19 22 31
  21190104.079   -20252480.720 9 -15761835.24347  21190104.306    21190111.8914
  23254520.065    -4339040.789 8  -3356514.99245  23254519.741    23254532.4234
  20733809.352   -19932811.182 9 -15519310.62747  20733809.083    20733818.0164
  21122383.801   -20733432.536 9 -15819123.20547  21122383.458    21122391.2734
  23615320.611    -5417222.285 7  -4209157.71345  23615320.474    23615332.9054
  23892608.095    -3568090.583 7  -2510785.27645  23892607.621    23892621.3374
  21691433.252   -15360702.268 8 -11950852.78547  21691433.023    21691442.3934
  20417723.213   -24243166.688 9 -18869802.51747  20417723.134    20417731.8984
  23227154.183    -6164385.457 8  -4787191.13445  23227153.226    23227164.5544
  24139915.040    -4194278.377 7  -3236963.03245  24139914.675    24139930.4584
 00  9 14  0 19 30.0000000  0 10 13 08 01 28 03 20 27 19 22 31
  21180106.527   -20305017.931 9 -15802773.30847  21180106.787    21180114.3824
  23238604.309    -4422677.799 8  -3421686.56745  23238603.990    23238616.6604
  20740412.459   -19898111.613 9 -15492272.02147  20740412.162    20740421.1434
  21128973.858   -20698801.472 9 -15792137.97147  21128973.536    21128981.3234
  23606575.999    -5463175.326 7  -4244965.17645  23606575.768    23606588.1154
  23914149.070    -3454892.371 7  -2422579.18045  23914148.520    23914162.5804
  21681761.421   -15411527.877 8 -11990457.11947  21681761.199    21681770.5944
  20416252.031   -24250897.547 9 -18875826.55447  20416251.963    20416260.7184
  23246398.617    -6063255.078 8  -4708388.34245  23246397.813    23246409.1984
  24122468.047    -4285962.171 7  -3308404.77745  24122467.663    24122483.3264
 00  9 14  0 20  0.0000000  0 10 13 08 01 28 03 20 27 19 22 31
  21170165.133   -20357259.663 9 -15843481.12247  21170165.460    21170173.0634
  23222717.137    -4506165.020 8  -3486741.36345  23222716.798    23222729.3814
  20747087.030   -19863036.358 9 -15464940.66647  20747086.751    20747095.7664
  21135661.303   -20663658.671 9 -15764753.97447  21135660.996    21135668.7524
  23597909.610    -5508717.086 8  -4280452.15345  23597909.487    23597921.6264
  23935703.930    -3341621.960 7  -2334316.78645  23935703.467    23935717.3364
  21672126.195   -15462161.259 9 -12029911.65247  21672125.979    21672135.2994
  20414832.755   -24258356.254 9 -18881638.52047  20414832.616    20414841.3614
  23265691.658    -5961871.355 8  -4629388.14445  23265690.647    23265702.0184
  24105039.465    -4377549.234 7  -3379771.10545  24105039.000    24105054.3864
 00  9 14  0 20 30.0000000  0 10 13 08 01 28 03 20 27 19 22 31
  21160280.521   -20409203.810 9 -15883957.04447  21160280.803    21160288.4004
  23206858.386    -4589501.924 8  -3551679.08645  23206858.147    23206870.7074
  20753833.170   -19827585.019 9 -15437316.25547  20753832.920    20753841.9694
  21142445.940   -20628005.277 9 -15736972.10547  21142445.580    21142453.3364
  23589322.101    -5553844.999 7  -4315616.66245  23589321.963    23589333.8514
  23957271.723    -3228281.789 7  -2246000.08645  23957271.176    23957285.5924
  21662527.643   -15512602.175 8 -12069216.21647  21662527.405    21662536.6494
  20413465.193   -24265542.700 9 -18887238.33047  20413465.072    20413473.8454
  23285032.191    -5860236.741 7  -4550192.45045  23285031.148    23285042.5334
  24087629.873    -4469036.077 7  -3451059.29945  24087629.482    24087644.7594
 00  9 14  0 21  0.0000000  0 10 13 08 01 28 03 20 27 19 22 31
  21150453.002   -20460847.685 9 -15924198.99047  21150453.266    21150460.8594
  23191029.050    -4672686.114 8  -3616497.77445  23191028.755    23191041.1064
  20760651.306   -19791755.525 9 -15409397.19747  20760651.070    20760660.1074
  21149327.756   -20591840.962 9 -15708792.13847  21149327.435    21149335.1754
  23580813.962    -5598554.941 8  -4350455.49145  23580813.742    23580825.8104
  23978853.094    -3114872.765 7  -2157629.70845  23978852.495    23978866.7164
  21652966.009   -15562848.539 8 -12108369.20047  21652965.774    21652975.0594
  20412149.683   -24272455.611 9 -18892625.01647  20412149.583    20412158.3534
  23304420.216    -5758351.716 8  -4470801.62345  23304419.237    23304430.5974
  24070240.731    -4560417.629 7  -3522265.42445  24070239.831    24070255.1724
 00  9 14  0 21 30.0000000  0 10 13 08 01 28 03 20 27 19 22 31
  21140682.684   -20512190.609 9 -15964206.43147  21140683.010    21140690.5824
  23175228.067    -4755719.428 8  -3681198.86445  23175227.754    23175240.2704
  20767541.031   -19755550.001 9 -15381185.11647  20767540.801    20767549.7844
  21156306.014   -20555169.795 9 -15680217.20747  21156305.734    21156313.4444
  23572385.409    -5642846.874 7  -4384968.58945  23572385.277    23572397.4464
  24000446.751    -3001399.927 7  -2069209.64445  24000446.037    24000459.9724
  21643440.966   -15612902.628 8 -12147372.33547  21643440.748    21643450.0924
  20410885.774   -24279097.590 9 -18897800.57747  20410885.648    20410894.4454
  23323854.953    -5656221.392 8  -4391219.66345  23323854.042    23323865.5254
  24052871.422    -4651692.806 7  -3593388.74145  24052870.684    24052886.0294
 00  9 14  0 22  0.0000000  0 10 13 08 01 28 03 20 27 19 22 31
  21130970.148   -20563230.633 9 -16003977.84247  21130970.424    21130977.9664
  23159456.324    -4838601.031 8  -3745781.79845  23159455.973    23159468.4124
  20774502.456   -19718967.611 9 -15352679.37747  20774502.221    20774511.1894
  21163380.595   -20517992.704 9 -15651248.04547  21163380.297    21163388.0304
  23564037.059    -5686717.794 7  -4419153.62545  23564036.946    23564049.0594
  24022051.809    -2887865.518 7  -1980741.53144  24022051.170    24022064.7874
  21633952.612   -15662763.831 8 -12186225.18547  21633952.407    21633961.7604
  20409673.439   -24285468.136 9 -18902764.63347  20409673.337    20409682.1724
  23343335.943    -5553848.201 7  -4311448.44245  23343335.056    23343346.4984
  24035523.122    -4742857.866 7  -3664426.20645  24035522.535    24035537.7184
 00  9 14  0 22 30.0000000  0 10 13 08 01 28 03 20 27 19 22 31
  21121315.584   -20613965.581 9 -16043511.52847  21121315.857    21121323.3964
  23143713.328    -4921329.780 8  -3810245.58445  23143712.932    23143725.5134
  20781535.712   -19682007.510 9 -15323879.31847  20781535.472    20781544.4534
  21170551.209   -20480310.753 9 -15621885.49347  21170550.913    21170558.6924
  23555769.281    -5730164.833 8  -4453008.36745  23555769.140    23555781.3454
  24043668.177    -2774271.695 7  -1892227.20245  24043667.365    24043681.6964
  21624501.125   -15712431.623 9 -12224927.31547  21624500.930    21624510.2594
  20408512.882   -24291567.028 9 -18907517.01547  20408512.791    20408521.5704
  23362862.320    -5451234.802 8  -4231490.05245  23362861.707    23362873.2844
  24018196.558    -4833908.819 7  -3735374.75445  24018195.980    24018211.1294
 00  9 14  0 23  0.0000000  0 10 13 08 01 28 03 20 27 19 22 31
  21111719.374   -20664393.747 9 -16082806.16047  21111719.661    21111727.2204
  23127999.643    -5003905.402 8  -3874590.09845  23127999.219    23128011.7284
  20788640.959   -19644669.330 9 -15294784.64747  20788640.703    20788649.6954
  21177817.629   -20442125.336 9 -15592130.63347  21177817.372    21177825.1454
  23547582.724    -5773185.683 8  -4486531.02945  23547582.608    23547594.7154
  24065295.393    -2660621.091 7  -1803668.57644  24065294.633    24065308.6444
  21615086.542   -15761905.615 8 -12263478.43647  21615086.327    21615095.5874
  20407403.917   -24297394.611 9 -18912057.98647  20407403.848    20407412.5844
  23382434.170    -5348383.635 8  -4151346.38845  23382433.698    23382445.2974
  24000892.050    -4924842.305 7  -3806231.79145  24000891.548    24000906.9834
 00  9 14  0 23 30.0000000  0 10 13 08 01 28 03 20 27 19 22 31
  21102181.662   -20714514.394 9 -16121861.17047  21102181.963    21102189.5464
  23112314.979    -5086328.322 8  -3938815.60645  23112314.518    23112326.9014
  20795817.966   -19606954.031 9 -15265396.11847  20795817.695    20795826.6654
  21185179.354   -20403439.415 9 -15561985.77247  21185179.086    21185186.8434
  23539477.485    -5815778.957 8  -4519720.50345  23539477.358    23539489.3934
  24086932.659    -2546917.597 7  -1715068.79044  24086932.154    24086946.4914
  21605708.540   -15811186.929 8 -12301879.42447  21605708.359    21605717.5864
  20406346.323   -24302952.220 9 -18916388.58747  20406346.241    20406354.9624
  23402050.844    -5245298.346 8  -4071020.30245  23402050.337    23402061.8874
  23983610.789    -5015656.576 7  -3876995.91945  23983610.172    23983625.2344
 00  9 14  0 24  0.0000000  0 10 13 08 01 28 03 20 27 19 22 31
  21092703.125   -20764324.321 9 -16160674.05347  21092703.435    21092711.0374
  23096659.499    -5168597.304 8  -4002921.19245  23096659.126    23096671.4134
  20803066.968   -19568860.626 9 -15235712.96547  20803066.627    20803075.5874
  21192636.186   -20364253.572 9 -15531451.35747  21192635.874    21192643.6664
  23531454.213    -5857941.731 8  -4552574.49745  23531453.983    23531465.9564
  24108579.610    -2433163.016 7  -1626429.17544  24108579.117    24108593.3994
  21596367.405   -15860274.579 8 -12340129.48447  21596367.256    21596376.4804
  20405340.224   -24308239.176 9 -18920508.27747  20405340.157    20405348.9024
  23421711.671    -5141980.599 8  -3990513.05545  23421711.127    23421722.7394
  23966352.975    -5106347.217 7  -3947663.71945  23966352.251    23966367.2354
 00  9 14  0 24 30.0000000  0 10 13 08 01 28 03 20 27 19 22 31
  21083283.733   -20813823.313 9 -16199244.65547  21083284.036    21083291.6404
  23081033.403    -5250712.638 8  -4066906.98246  23081033.023    23081045.4014
  20810387.690   -19530389.931 9 -15205735.82547  20810387.399    20810396.3424
  21200187.631   -20324570.415 8 -15500529.42847  21200187.326    21200195.1514
  23523513.059    -5899672.616 8  -4585091.97345  23523512.911    23523524.6904
  24130235.797    -2319360.858 7  -1537752.49844  24130235.155    24130249.1374
  21587063.029   -15909169.448 8 -12378229.33947  21587062.857    21587072.0784
  20404385.408   -24313256.640 9 -18924417.98247  20404385.338    20404394.0784
  23441416.014    -5038434.606 8  -3909827.96845  23441415.365    23441426.8594
  23949118.512    -5196911.983 7  -4018233.41745  23949117.951    23949133.1874
 00  9 14  0 25  0.0000000  0 10 13 08 01 28 03 20 27 19 22 31
  21073924.248   -20863007.757 9 -16237570.15747  21073924.536    21073932.1284
  23065437.006    -5332672.998 8  -4130772.09846  23065436.541    23065448.7654
  20817780.498   -19491540.538 9 -15175463.59647  20817780.201    20817789.1474
  21207833.625   -20284390.417 9 -15469220.35047  21207833.313    21207841.1434
  23515654.669    -5940968.000 8  -4617270.08845  23515654.491    23515666.3064
  24151900.364    -2205512.566 7  -1449039.90844  24151899.618    24151913.9514
  21577795.576   -15957870.255 9 -12416177.99047  21577795.363    21577804.5264
  20403482.031   -24318003.731 9 -18928117.00547  20403481.953    20403490.7174
  23461163.500    -4934662.120 8  -3828966.37945  23461162.755    23461174.2324
  23931909.383    -5287345.866 7  -4088701.13745  23931908.905    23931923.8664
 00  9 14  0 25 30.0000000  0 10 13 08 01 28 03 20 27 19 22 31
  21064624.694   -20911877.402 9 -16275650.35947  21064624.934    21064632.4854
  23049869.578    -5414479.041 8  -4194516.93546  23049869.078    23049881.4784
  20825245.140   -19452313.609 9 -15144897.17547  20825244.843    20825253.8064
  21215573.598   -20243716.709 9 -15437526.55747  21215573.324    21215581.1414
  23507879.439    -5981827.230 8  -4649108.35945  23507879.184    23507890.7144
  24173573.454    -2091622.347 7  -1360294.57544  24173573.083    24173587.1174
  21568564.794   -16006378.149 9 -12453976.30047  21568564.544    21568573.7434
  20402629.837   -24322482.188 9 -18931606.70147  20402629.773    20402638.5134
  23480953.161    -4830666.873 8  -3747931.22145  23480952.574    23480963.9474
  23914725.217    -5377647.433 7  -4159065.70345  23914724.721    23914739.8334
 00  9 14  0 26  0.0000000  0 10 13 08 01 28 03 20 27 19 22 31
  21055385.539   -20960429.290 9 -16313482.96647  21055385.800    21055393.3004
  23034331.818    -5496129.128 8  -4258140.26346  23034331.424    23034343.8644
  20832782.017   -19412707.435 9 -15114035.25347  20832781.695    20832790.6284
  21223407.527   -20202549.335 9 -15405448.10447  21223407.231    21223415.0044
  23500187.688    -6022246.400 7  -4680603.73845  23500187.529    23500199.1264
  24195253.826    -1977691.416 7  -1271517.64644  24195253.643    24195268.2144
  21559370.957   -16054691.632 8 -12491623.12647  21559370.738    21559379.9484
  20401829.004   -24326690.639 9 -18934886.00647  20401828.928    20401837.6664
  23500785.208    -4726449.921 8  -3666723.29245  23500784.615    23500795.7994
  23897567.554    -5467811.760 7  -4229323.42545  23897566.909    23897581.7824
 00  9 14  0 26 30.0000000  0 10 13 08 01 28 03 20 27 19 22 31
  21046207.075   -21008662.163 9 -16351066.97747  21046207.354    21046214.8634
  23018823.982    -5577623.441 8  -4321642.18646  23018823.490    23018835.8224
  20840390.827   -19372722.889 9 -15082878.48547  20840390.518    20840399.4514
  21231334.831   -20160890.925 9 -15372987.01147  21231334.573    21231342.3184
  23492580.032    -6062223.953 8  -4711754.98045  23492579.875    23492591.6564
  24216941.576    -1863723.314 7  -1182711.65444  24216941.439    24216956.1844
  21550214.054   -16102811.485 9 -12529119.07347  21550213.808    21550223.0524
  20401079.320   -24330630.094 9 -18937955.69247  20401079.237    20401088.0244
  23520658.678    -4622014.793 8  -3585345.36245  23520658.147    23520669.2164
  23880436.214    -5557836.105 7  -4299472.04945  23880435.580    23880450.3544
 00  9 14  0 27  0.0000000  0 10 13 08 01 28 03 20 27 19 22 31
  21037089.628   -21056574.688 9 -16388401.38447  21037089.906    21037097.3694
  23003345.707    -5658961.704 8  -4385022.54746  23003345.296    23003357.5364
  20848071.687   -19332359.826 9 -15051426.77547  20848071.380    20848080.3214
  21239355.345   -20118743.247 9 -15340144.67947  21239355.050    21239362.7624
  23485057.006    -6101757.646 8  -4742560.37245  23485056.853    23485068.6674
  24238636.046    -1749720.401 7  -1093878.56344  24238635.822    24238650.7644
  21541094.018   -16150737.663 9 -12566464.11047  21541093.731    21541102.9664
  20400380.752   -24334300.859 9 -18940816.01547  20400380.670    20400389.4724
  23540572.982    -4517364.770 8  -3503799.98845  23540572.451    23540583.5684
  23863331.889    -5647717.383 7  -4369509.18945  23863331.380    23863346.3394
 00  9 14  0 27 30.0000000  0 10 13 08 01 28 03 20 27 19 22 31
  21028033.592   -21104164.574 9 -16425484.37947  21028033.845    21028041.2654
  22987897.214    -5740143.311 8  -4448280.83746  22987896.821    22987909.0624
  20855824.591   -19291618.196 9 -15019680.07447  20855824.253    20855833.2364
  21247468.588   -20076108.093 9 -15306922.49947  21247468.294    21247475.9884
  23477618.449    -6140845.741 8  -4773018.53745  23477618.413    23477630.2884
  24260336.472    -1635685.795 7  -1005020.84644  24260336.496    24260351.0104
  21532010.764   -16198470.100 8 -12603658.16947  21532010.499    21532019.7524
  20399733.305   -24337703.480 9 -18943467.39347  20399733.189    20399741.9554
  23560527.675    -4412502.721 8  -3422089.37945  23560527.096    23560538.2534
  23846255.485    -5737452.405 7  -4439432.32745  23846255.012    23846270.1684
 00  9 14  0 28  0.0000000  0 10 13 08 01 28 03 20 27 19 22 31
  21019039.239   -21151429.806 9 -16462314.40347  21019039.522    21019046.9384
  22972478.680    -5821167.953 8  -4511416.82146  22972478.334    22972490.5034
  20863649.545   -19250497.745 9 -14987638.19647  20863649.266    20863658.2674
  21255674.250   -20032987.081 9 -15273321.73147  21255673.943    21255681.6534
  23470265.536    -6179485.570 8  -4803127.38945  23470265.413    23470277.1104
  24282042.307    -1521621.944 7   -916140.25444  24282042.461    24282057.0964
  21522964.465   -16246008.477 9 -12640701.01947  21522964.212    21522973.4914
  20399136.827   -24340837.855 9 -18945909.75147  20399136.722    20399145.4834
  23580522.484    -4307430.763 8  -3340215.22845  23580521.805    23580533.0044
  23829207.893    -5827037.305 7  -4509238.53545  23829207.433    23829222.5324
 00  9 14  0 28 30.0000000  0 10 13 08 01 28 03 20 27 19 22 31
  21010106.855   -21198369.653 9 -16498890.88247  21010107.146    21010114.5374
  22957090.074    -5902035.645 8  -4574430.51246  22957089.657    22957101.7534
  20871546.430   -19208999.361 9 -14955301.81947  20871546.149    20871555.1804
  21263971.973   -19989382.516 9 -15239344.15947  21263971.619    21263979.3394
  23462998.135    -6217676.237 8  -4832886.27245  23462997.994    23463009.5204
  24303753.439    -1407532.210 7   -827239.50745  24303753.151    24303768.2024
  21513955.008   -16293353.569 8 -12677593.26447  21513954.749    21513963.9694
  20398591.141   -24343705.267 9 -18948144.08447  20398591.069    20398599.8294
  23600556.078    -4202152.267 8  -3258180.12845  23600555.625    23600566.8504
  23812189.663    -5916469.889 7  -4578926.06645  23812189.095    23812203.8604
 00  9 14  0 29  0.0000000  0 10 13 08 01 28 03 20 27 19 22 31
  21001236.743   -21244982.286 9 -16535212.39047  21001237.006    21001244.3874
  22941731.329    -5982746.251 8  -4637321.75246  22941730.910    22941742.8564
  20879515.284   -19167122.715 9 -14922670.69947  20879515.072    20879524.0794
  21272361.222   -19945296.385 9 -15204991.34547  21272360.951    21272368.6734
  23455816.688    -6255415.416 8  -4862293.33845  23455816.407    23455828.0094
  24325468.574    -1293419.294 7   -738320.72145  24325468.428    24325483.4954
  21504982.321   -16340505.271 8 -12714334.82147  21504982.081    21504991.2644
  20398096.258   -24346306.016 9 -18950170.63047  20398096.132    20398104.9234
  23620628.690    -4096670.164 8  -3175986.37045  23620628.229    23620639.6064
  23795200.675    -6005746.785 8  -4648492.26045  23795200.226    23795214.9154
 00  9 14  0 29 30.0000000  0 10 13 08 01 28 03 20 27 19 22 31
  20992429.369   -21291264.986 9 -16571276.80647  20992429.644    20992437.0804
  22926402.830    -6063298.092 8  -4700089.28846  22926402.423    22926414.2804
  20887556.417   -19124866.510 9 -14889743.81947  20887556.176    20887565.1974
  21280842.097   -19900729.345 9 -15170263.80047  21280841.830    21280849.5414
  23448721.480    -6292699.683 8  -4891345.93145  23448721.209    23448732.9424
  24347188.338    -1179284.836 7   -649385.14445  24347187.782    24347203.2304
  21496046.739   -16387462.201 9 -12750924.60247  21496046.447    21496055.6354
  20397652.207   -24348638.887 9 -18951988.44247  20397652.119    20397660.9344
  23640739.777    -3990986.309 8  -3093635.39445  23640739.296    23640750.6184
  23778242.346    -6094863.347 7  -4717933.56245  23778242.026    23778256.3534
 00  9 14  0 30  0.0000000  0 10 13 08 01 28 03 20 27 19 22 31
  20983685.140   -21337215.983 9 -16607082.75147  20983685.437    20983692.9004
  22911104.189    -6143691.470 8  -4762733.37446  22911103.863    22911115.6964
  20895669.626   -19082231.454 9 -14856521.72547  20895669.389    20895678.3804
  21289413.984   -19855683.799 9 -15135163.39147  21289413.676    21289421.4284
  23441713.112    -6329527.583 7  -4920042.95245  23441712.901    23441724.6304
  24368911.079    -1065132.210 7   -560435.39445  24368910.454    24368926.0544
  21487148.103   -16434224.950 9 -12787363.07847  21487147.777    21487156.9094
  20397259.096   -24350704.838 9 -18953598.26447  20397259.001    20397267.8084
  23660888.649    -3885104.152 8  -3011129.91445  23660887.928    23660899.3984
  23761314.845    -6183817.374 8  -4787248.13645  23761314.464    23761328.8714
 00  9 14  0 30 30.0000000  0 10 13 08 01 28 03 20 27 19 22 31
  20975004.380   -21382833.760 9 -16642629.05147  20975004.646    20975012.0894
  22895836.141    -6223925.715 8  -4825253.39546  22895835.743    22895847.5264
  20903854.999   -19039217.256 9 -14823004.19547  20903854.772    20903863.7134
  21298076.648   -19810161.358 9 -15099691.38047  21298076.299    21298084.0954
  23434792.257    -6365896.686 8  -4948382.42645  23434791.982    23434803.7364
  24390637.097     -950963.613 7   -471473.22545  24390636.253    24390651.8784
  21478286.344   -16480793.181 9 -12823649.96547  21478286.062    21478295.2904
  20396916.748   -24352503.876 9 -18955000.09647  20396916.638    20396925.4624
  23681074.692    -3779025.646 8  -2928471.44445  23681074.064    23681085.5974
  23744419.042    -6272605.065 8  -4856433.16145  23744418.701    23744433.0214
 00  9 14  0 31  0.0000000  0 10 13 08 01 28 03 20 27 19 22 31
  20966387.208   -21428116.981 9 -16677914.65447  20966387.502    20966394.9374
  22880598.196    -6304001.337 8  -4887649.86346  22880597.792    22880609.4234
  20912112.345   -18995824.781 9 -14789191.90047  20912112.086    20912121.0364
  21306829.492   -19764164.938 9 -15063850.03347  21306829.119    21306836.9824
  23427958.789    -6401806.091 8  -4976363.72645  23427958.711    23427970.4024
  24412365.396     -836782.731 7   -382501.47245  24412364.681    24412380.2554
  21469461.528   -16527167.648 9 -12859785.86547  21469461.252    21469470.5064
  20396624.949   -24354037.158 9 -18956194.84947  20396624.870    20396633.7064
  23701297.519    -3672754.436 8  -2845662.78845  23701296.824    23701308.5414
  23727555.265    -6361223.962 8  -4925486.65445  23727554.965    23727569.4264
 00  9 14  0 31 30.0000000  0 10 13 08 01 28 03 20 27 19 22 31
  20957834.280   -21473063.028 9 -16712937.53147  20957834.573    20957841.9604
  22865390.773    -6383916.174 8  -4949921.06246  22865390.321    22865402.0474
  20920441.922   -18952052.328 9 -14755083.53447  20920441.730    20920450.6824
  21315672.453   -19717694.555 8 -15027639.36647  21315672.127    21315680.0174
  23421213.502    -6437252.344 8  -5003984.09345  23421213.481    23421225.3354
  24434095.759     -722590.539 7   -293520.94345  24434095.117    24434110.5794
  21460673.893   -16573346.771 9 -12895769.55547  21460673.615    21460682.8604
  20396384.047   -24355303.488 9 -18957181.58948  20396383.907    20396392.7104
  23721556.940    -3566291.766 7  -2762704.98545  23721556.018    23721567.8874
  23710724.634    -6449669.209 8  -4994404.85345  23710724.228    23710738.5394
 00  9 14  0 32  0.0000000  0 10 13 08 01 28 03 20 27 19 22 31
  20949345.678   -21517670.813 9 -16747696.82447  20949345.989    20949353.3374
  22850213.678    -6463671.014 8  -5012067.55246  22850213.317    22850225.1034
  20928843.724   -18907900.751 9 -14720679.74647  20928843.533    20928852.5004
  21324605.075   -19670753.101 9 -14991061.63647  21324604.803    21324612.6864
  23414556.882    -6472234.177 8  -5031242.59445  23414556.759    23414568.5074
  24455827.719     -608390.797 7   -204534.50045  24455826.783    24455842.4154
  21451923.294   -16619331.325 9 -12931601.63047  21451923.023    21451932.2924
  20396193.673   -24356303.855 9 -18957961.07848  20396193.519    20396202.3514
  23741851.741    -3459641.789 8  -2679601.21245  23741850.968    23741862.8814
  23693927.471    -6537938.497 8  -5063185.91145  23693926.985    23693941.0744
 00  9 14  0 32 30.0000000  0 10 13 08 01 28 03 20 27 19 22 31
  20940921.750   -21561938.640 9 -16782191.21447  20940922.061    20940929.4134
  22835067.206    -6543265.503 8  -5074089.06446  22835066.802    22835078.6474
  20937317.656   -18863370.477 9 -14685980.86547  20937317.397    20937326.3694
  21333627.031   -19623342.688 9 -14954118.47747  21333626.717    21333634.5654
  23407988.817    -6506749.719 8  -5058137.75545  23407988.597    23408000.3634
  24477560.333     -494186.177 7   -115544.26145  24477559.717    24477574.9124
  21443209.729   -16665121.457 9 -12967282.21547  21443209.435    21443218.6434
  20396053.785   -24357038.848 9 -18958533.79148  20396053.666    20396062.5214
  23762181.810    -3352806.996 7  -2596353.42645  23762180.994    23762192.9534
  23677164.455    -6626028.792 8  -5131827.50845  23677163.871    23677177.7354
 00  9 14  0 33  0.0000000  0 10 13 08 01 28 03 20 27 19 22 31
  20932563.165   -21605863.315 9 -16816418.21247  20932563.478    20932570.7904
  22819951.494    -6622698.520 8  -5135984.76946  22819951.087    22819962.7924
  20945863.710   -18818460.696 9 -14650986.25747  20945863.460    20945872.4654
  21342738.056   -19575464.417 9 -14916810.75547  21342737.690    21342745.4914
  23401509.902    -6540796.262 8  -5084667.46945  23401509.832    23401521.3004
  24499293.271     -379978.713 7    -26551.79845  24499292.932    24499307.9324
  21434533.245   -16710716.239 9 -13002810.57647  21434532.992    21434542.1654
  20395964.525   -24357508.067 9 -18958899.41148  20395964.398    20395973.2364
  23782546.718    -3245788.894 7  -2512962.80645  23782545.896    23782557.7944
  23660436.174    -6713935.668 8  -5200326.18845  23660435.602    23660449.0744
 00  9 14  0 33 30.0000000  0 10 13 08 01 28 03 20 27 19 22 31
  20924269.820   -21649444.828 9 -16850377.80847  20924270.169    20924277.4344
  22804866.202    -6701970.742 8  -5197755.15446  22804865.920    22804877.6944
  20954481.759   -18773172.554 9 -14615696.82347  20954481.524    20954490.5744
  21351937.352   -19527121.227 9 -14879140.75747  21351937.062    21351944.8594
  23395120.471    -6574372.874 8  -5110830.98445  23395120.485    23395131.8524
  24521026.357     -265772.144 7     62439.95045  24521025.846    24521041.5714
  21425893.782   -16756116.940 9 -13038187.70247  21425893.503    21425902.6534
  20395925.530   -24357712.791 9 -18959058.92948  20395925.445    20395934.2564
  23802945.967    -3138591.501 7  -2429432.47045  23802945.054    23802956.8794
  23643742.994    -6801657.109 8  -5268680.35745  23643742.489    23643755.9364
 00  9 14  0 34  0.0000000  0 10 13 08 01 28 03 20 27 19 22 31
  20916042.430   -21692680.326 9 -16884067.78847  20916042.735    20916050.0014
  22789812.238    -6781080.424 8  -5259398.95146  22789811.742    22789823.5944
  20963172.080   -18727504.638 9 -14580111.47147  20963171.848    20963180.9254
  21361225.110   -19478313.729 9 -14841108.96347  21361224.832    21361232.6324
  23388820.968    -6607476.151 8  -5136625.68645  23388821.007    23388832.4254
  24542758.753     -151567.663 7    151430.06345  24542758.391    24542774.1484
  21417291.568   -16801321.811 9 -13073412.23347  21417291.258    21417300.3784
  20395937.117   -24357651.828 9 -18959011.41648  20395937.036    20395945.8424
  23823378.763    -3031216.314 7  -2345763.60945  23823377.998    23823389.8994
  23627086.155    -6889188.030 8  -5336886.07545  23627085.680    23627099.1294
 00  9 14  0 34 30.0000000  0 10 13 08 01 28 03 20 27 19 22 31
  20907880.969   -21735569.126 9 -16917487.60047  20907881.225    20907888.5244
  22774788.814    -6860028.609 8  -5320916.88446  22774788.283    22774800.1604
  20971934.368   -18681458.506 9 -14544231.39547  20971934.102    20971943.2224
  21370600.720   -19429045.247 9 -14802717.95747  21370600.361    21370608.1564
  23382611.525    -6640105.730 8  -5162051.25445  23382611.525    23382623.1844
  24564490.430      -37369.475 7    240415.28544  24564489.867    24564505.7994
  21408726.325   -16846332.348 9 -13108485.32647  21408725.998    21408735.0984
  20395998.978   -24357326.990 9 -18958758.28248  20395998.844    20396007.6414
  23843844.251    -2923667.745 7  -2261959.64845  23843843.860    23843855.8414
  23610465.905    -6976526.897 8  -5404942.16245  23610465.386    23610478.8944
 00  9 14  0 35  0.0000000  0 10 13 08 01 28 03 20 27 19 22 31
  20899786.013   -21778108.195 9 -16950634.90147  20899786.309    20899793.5894
  22759796.388    -6938813.477 8  -5382307.58246  22759795.911    22759807.7004
  20980768.866   -18635032.681 9 -14508055.45647  20980768.616    20980777.8024
  21380063.833   -19379316.298 9 -14763968.14547  21380063.470    21380071.3024
  23376492.912    -6672258.255 8  -5187105.08645  23376492.852    23376504.6864
  24586220.496       76821.371 7    329394.78445  24586220.174    24586236.2634
  21400198.289   -16891147.010 9 -13143405.79747  21400198.001    21400207.1504
  20396111.237   -24356737.080 9 -18958298.60448  20396111.106    20396119.9034
  23864343.126    -2815946.471 7  -2178021.09045  23864342.649    23864354.5174
  23593883.136    -7063668.984 8  -5472844.90145  23593882.725    23593896.2464
 00  9 14  0 35 30.0000000  0 10 13 08 01 28 03 20 27 19 22 31
  20891757.877   -21820296.258 9 -16983508.69447  20891758.177    20891765.4544
  22744835.011    -7017435.536 8  -5443571.39146  22744834.559    22744846.2864
  20989675.470   -18588228.360 9 -14471584.59547  20989675.230    20989684.4414
  21389614.008   -19329129.810 9 -14724861.81347  21389613.649    21389621.5674
  23370465.225    -6703932.682 8  -5211786.40345  23370465.244    23370477.0574
  24607948.537      191001.349 7    418365.75544  24607948.091    24607964.2614
  21391707.362   -16935766.670 9 -13178174.33247  21391707.139    21391716.2664
  20396273.692   -24355883.408 9 -18957633.40348  20396273.574    20396282.3594
  23884874.060    -2708055.942 7  -2093950.66345  23884873.556    23884885.6324
  23577338.056    -7150611.936 7  -5540592.47445  23577337.700    23577351.2974
 00  9 14  0 36  0.0000000  0 10 13 08 01 28 03 20 27 19 22 31
  20883796.836   -21862131.848 9 -17016107.82847  20883797.118    20883804.4134
  22729904.523    -7095894.374 8  -5504708.02746  22729904.185    22729915.9684
  20998654.138   -18541045.505 9 -14434818.76847  20998653.874    20998663.0674
  21399250.892   -19278487.538 8 -14685400.32347  21399250.577    21399258.5334
  23364528.970    -6735127.315 8  -5236093.83945  23364529.022    23364540.7754
  24629673.707      305167.771 7    507326.19144  24629673.392    24629689.5094
  21383253.632   -16980191.056 9 -13212790.70847  21383253.422    21383262.5184
  20396486.302   -24354766.220 9 -18956762.86248  20396486.166    20396494.9394
  23905436.772    -2599998.893 7  -2009750.46045  23905436.111    23905448.2204
  23560831.658    -7237352.065 8  -5608181.98545  23560831.386    23560845.0074
 00  9 14  0 36 30.0000000  0 10 13 08 01 28 03 20 27 19 22 31
  20875903.161   -21903613.105 9 -17048430.85447  20875903.473    20875910.7824
  22715005.351    -7174189.952 8  -5565717.44546  22715004.990    22715016.8584
  21007704.811   -18493484.340 9 -14397758.16047  21007704.499    21007713.6984
  21408974.046   -19227391.986 9 -14645585.63747  21408973.756    21408981.6974
  23358684.449    -6765840.696 8  -5260026.24845  23358684.480    23358696.1354
  24651395.830      419317.674 7    596273.71844  24651395.204    24651412.2244
  21374837.062   -17024420.431 9 -13247255.11647  21374836.838    21374845.9464
  20396749.028   -24353385.819 9 -18955687.21748  20396748.845    20396757.6214
  23926030.185    -2491778.604 7  -1925423.08745  23926029.734    23926041.8674
  23544364.603    -7323886.476 8  -5675611.25945  23544364.336    23544377.7094
 00  9 14  0 37  0.0000000  0 10 13 08 01 28 03 20 27 19 22 31
  20868077.176   -21944738.570 9 -17080476.64247  20868077.521    20868084.8214
  22700137.257    -7252321.704 8  -5626599.19546  22700136.833    22700148.8094
  21016827.345   -18445544.922 9 -14360402.80047  21016827.103    21016836.3064
  21418783.125   -19175844.889 9 -14605419.09147  21418782.865    21418790.7394
  23352931.766    -6796070.658 8  -5283581.98145  23352931.722    23352943.5854
  24673114.872      533448.848 7    685206.66544  24673113.779    24673130.8454
  21366457.585   -17068454.476 9 -13281567.33247  21366457.379    21366466.4924
  20397061.755   -24351742.402 9 -18954406.62948  20397061.578    20397070.3464
  23946654.590    -2383397.733 7  -1840970.56845  23946654.037    23946666.1524
  23527937.363    -7410211.738 8  -5742877.53645  23527937.138    23527950.3134
 00  9 14  0 37 30.0000000  0 10 13 08 01 28 03 20 27 19 22 31
  20860319.356   -21985506.293 9 -17112243.67147  20860319.681    20860326.9604
  22685300.462    -7330288.549 8  -5687352.49946  22685300.104    22685311.9524
  21026022.024   -18397226.774 9 -14322752.33847  21026021.728    21026030.9334
  21428677.956   -19123847.584 9 -14564901.72747  21428677.645    21428685.5204
  23347271.653    -6825814.979 8  -5306759.30045  23347271.670    23347283.2624
  24694829.537      647558.988 6    774123.26444  24694828.584    24694845.2074
  21358115.461   -17112292.599 9 -13315726.88547  21358115.225    21358124.3614
  20397424.541   -24349835.674 9 -18952920.86548  20397424.397    20397433.1814
  23967308.692    -2274857.839 7  -1756394.11945  23967308.497    23967320.7174
  23511550.726    -7496323.879 7  -5809977.73045  23511550.483    23511563.6784
 00  9 14  0 38  0.0000000  0  9 13 08 01 28 03 27 19 22 31
  20852630.045   -22025914.135 9 -17143730.28147  20852630.334    20852637.5534
  22670495.206    -7408090.748 8  -5747977.45146  22670494.733    22670506.6394
  21035288.574   -18348530.545 9 -14284807.26547  21035288.373    21035297.5764
  21438657.896   -19071402.784 9 -14524035.67347  21438657.546    21438665.4224
  23341704.290    -6855072.151 8  -5329557.02145  23341704.204    23341715.7154
  21349810.394   -17155935.344 9 -13349734.19147  21349810.224    21349819.3284
  20397837.334   -24347666.385 9 -18951230.50548  20397837.171    20397846.0074
  23987993.050    -2166161.907 7  -1671696.11745  23987992.678    23988004.9164
  23495205.280    -7582220.106 8  -5876909.69145  23495204.879    23495218.2544
 00  9 14  0 38 30.0000000  0  9 13 08 01 28 03 27 19 22 31
  20845009.254   -22065961.515 9 -17174936.00747  20845009.540    20845016.7344
  22655721.186    -7485728.736 8  -5808474.49046  22655720.751    22655732.4304
  21044626.949   -18299457.006 9 -14246568.18347  21044626.748    21044636.0024
  21448722.502   -19018513.105 8 -14482822.95147  21448722.129    21448730.0424
  23336229.783    -6883841.242 8  -5351974.40245  23336229.664    23336241.2544
  21341542.522   -17199383.188 9 -13383589.61447  21341542.358    21341551.4234
  20398299.915   -24345235.404 9 -18949336.23248  20398299.751    20398308.5894
  24008706.662    -2057313.445 7  -1586879.23945  24008706.138    24008718.1514
  23478901.150    -7667897.725 7  -5943671.34945  23478900.825    23478914.1504
 00  9 14  0 39  0.0000000  0  9 13 08 01 28 03 27 19 22 31
  20837457.549   -22105645.927 9 -17205858.90247  20837457.838    20837465.0394
  22640978.699    -7563200.974 8  -5868842.36846  22640978.207    22640989.8344
  21054037.250   -18250005.475 9 -14208034.56047  21054037.033    21054046.3194
  21458871.522   -18965179.402 8 -14441264.24347  21458871.193    21458879.1404
  23330848.471    -6912119.487 8  -5374009.33845  23330848.430    23330860.0244
  21333311.872   -17242635.025 9 -13417292.29747  21333311.756    21333320.8314
  20398812.348   -24342542.137 9 -18947237.57647  20398812.246    20398821.0594
  24029448.649    -1948314.528 7  -1501945.10245  24029448.059    24029460.0794
  23462639.463    -7753352.838 8  -6010259.57745  23462639.144    23462652.3944
 00  9 14  0 39 30.0000000  0  9 13 08 01 28 03 27 19 22 31
  20829975.313   -22144965.420 9 -17236497.44947  20829975.578    20829982.7694
  22626267.774    -7640507.278 8  -5929080.97646  22626267.221    22626278.7664
  21063519.450   -18200176.304 9 -14169206.67747  21063519.219    21063528.5394
  21469104.683   -18911403.922 9 -14399361.29547  21469104.358    21469112.3234
  23325561.143    -6939905.025 8  -5395660.34445  23325561.070    23325572.5044
  21325118.713   -17285690.755 9 -13450842.20147  21325118.528    21325127.5484
  20399374.745   -24339586.561 9 -18944934.53247  20399374.687    20399383.4294
  24050218.212    -1839167.589 7  -1416895.63745  24050217.901    24050230.1084
  23446420.725    -7838581.843 8  -6076671.62445  23446420.411    23446433.7394
 00  9 14  0 40  0.0000000  0  9 13 08 01 28 03 27 19 22 31
  20822562.847   -22183917.891 9 -17266850.00347  20822563.130    20822570.3244
  22611588.416    -7717646.644 8  -5989189.49146  22611588.024    22611599.5254
  21073073.622   -18149969.032 9 -14130084.17847  21073073.405    21073082.6834
  21479421.596   -18857188.435 9 -14357115.48447  21479421.256    21479429.1894
  23320367.873    -6967195.822 8  -5416925.82145  23320367.675    23320379.2934
  21316962.830   -17328549.863 9 -13484238.88347  21316962.674    21316971.6404
  20399987.148   -24336368.638 9 -18942427.06047  20399987.023    20399995.7624
  24071016.081    -1729874.377 7  -1331732.25545  24071015.613    24071028.0584
  23430245.951    -7923581.179 8  -6142904.74845  23430245.519    23430258.6164
 00  9 14  0 40 30.0000000  0  9 13 08 01 28 03 27 19 22 31
  20815220.361   -22222502.988 9 -17296916.29047  20815220.633    20815227.8454
  22596940.958    -7794620.154 8  -6049168.77246  22596940.583    22596951.8184
  21082699.483   -18099385.293 9 -14090668.31947  21082699.231    21082708.5154
  21489821.545   -18802536.366 8 -14314529.47447  21489821.186    21489829.1834
  23315268.785    -6993991.818 8  -5437805.74045  23315268.615    23315280.1254
  21308844.227   -17371213.617 9 -13517483.34447  21308844.064    21308853.0014
  20400649.074   -24332890.216 9 -18939716.60047  20400648.945    20400657.6984
  24091841.465    -1620439.009 7  -1246458.03045  24091840.695    24091852.9794
  23414115.097    -8008349.048 7  -6208957.48145  23414114.556    23414127.7424
 00  9 14  0 41  0.0000000  0  9 13 08 01 28 03 27 19 22 31
  20807948.173   -22260718.615 9 -17326694.67947  20807948.457    20807955.6254
  22582325.218    -7871426.933 8  -6109018.11346  22582324.792    22582335.9484
  21092396.995   -18048424.674 9 -14050958.79147  21092396.727    21092406.0224
  21500304.314   -18747448.945 9 -14271604.24247  21500304.009    21500311.9834
  23310264.232    -7020290.487 8  -5458298.15345  23310264.040    23310275.5714
  21300762.857   -17413681.278 9 -13550574.99447  21300762.739    21300771.6714
  20401360.573   -24329150.918 9 -18936802.86347  20401360.482    20401369.2894
  24112693.526    -1510863.652 7  -1161074.74645  24112692.380    24112704.7074
  23398028.974    -8092881.085 8  -6274826.45845  23398028.552    23398041.7374
 00  9 14  0 41 30.0000000  0  9 13 08 01 28 03 27 19 22 31
  20800746.611   -22298562.797 9 -17356183.63547  20800746.923    20800754.0964
  22567740.952    -7948067.151 8  -6168737.68246  22567740.509    22567751.7004
  21102166.070   -17997087.922 9 -14010956.17647  21102165.804    21102175.0944
  21510869.444   -18691929.012 9 -14228341.98147  21510869.135    21510877.0864
  23305354.486    -7046090.808 8  -5478402.22445  23305354.299    23305365.9074
  21292718.800   -17455953.350 9 -13583514.23947  21292718.628    21292727.5614
  20402121.646   -24325151.489 9 -18933686.41947  20402121.545    20402130.3444
  24133571.324    -1401151.792 7  -1075585.07645  24133570.017    24133582.2624
  23381988.728    -8177174.472 8  -6340509.47845  23381988.186    23382001.0284
 00  9 14  0 42  0.0000000  0  9 13 08 01 28 03 27 19 22 31
  20793616.305   -22336032.808 9 -17385381.02547  20793616.639    20793623.7754
  22553188.795    -8024538.540 8  -6228325.71446  22553188.363    22553199.6474
  21112007.018   -17945373.416 9 -13970659.19347  21112006.752    21112016.0404
  21521516.814   -18635976.683 8 -14184742.79947  21521516.544    21521524.4554
  23300540.373    -7071389.098 8  -5498115.12345  23300540.191    23300551.8604
  21284712.218   -17498027.848 9 -13616299.53047  21284712.061    21284720.9974
  20402932.594   -24320890.133 9 -18930365.88247  20402932.484    20402941.2604
  24154474.180    -1291303.654 7   -989989.23845  24154473.575    24154485.8524
  23365994.390    -8261224.286 8  -6406002.66945  23365993.969    23366006.8064
 00  9 14  0 42 30.0000000  0  9 13 08 01 28 03 27 19 22 31
  20786557.540   -22373126.978 9 -17414285.55247  20786557.865    20786564.9934
  22538668.845    -8100841.218 8  -6287782.27946  22538668.424    22538679.6314
  21121919.816   -17893281.810 9 -13930068.37047  21121919.529    21121928.7754
  21532246.044   -18579594.810 9 -14140808.90247  21532245.746    21532253.5974
  23295821.957    -7096184.325 8  -5517436.00845  23295821.799    23295833.1894
  21276743.305   -17539905.086 9 -13648931.12047  21276743.097    21276752.0024
  20403793.098   -24316367.979 9 -18926842.12447  20403792.988    20403801.7694
  24175403.390    -1181322.163 7   -904289.46145  24175402.467    24175414.9374
  23350047.073    -8345027.623 8  -6471303.83145  23350046.639    23350059.5014
 00  9 14  0 43  0.0000000  0  9 13 08 01 28 03 27 19 22 31
  20779570.452   -22409844.386 9 -17442896.50247  20779570.752    20779577.8464
  22524180.938    -8176975.351 8  -6347107.50046  22524180.514    22524191.6264
  21131904.230   -17840813.955 9 -13889184.37547  21131903.897    21131913.1234
  21543056.489   -18522785.709 8 -14096542.09947  21543056.163    21543064.0414
  23291199.368    -7120475.760 8  -5536364.33945  23291199.318    23291210.5834
  21268811.740   -17581585.576 9 -13681409.39647  21268811.538    21268820.4694
  20404703.137   -24311585.504 9 -18923115.51847  20404703.058    20404711.8274
  24196357.059    -1071210.399 7   -818488.21845  24196356.121    24196368.7484
  23334147.092    -8428581.822 7  -6536410.84445  23334146.587    23334159.3944
 00  9 14  0 43 30.0000000  0  9 13 08 01 28 03 27 19 22 31
  20772655.322   -22446183.619 9 -17471212.76847  20772655.620    20772662.7124
  22509725.072    -8252940.781 8  -6406301.27946  22509724.642    22509735.7534
  21141960.077   -17787970.466 9 -13848007.66747  21141959.726    21141968.9704
  21553947.689   -18465551.907 8 -14051944.36847  21553947.393    21553955.2974
  23286673.164    -7144261.981 8  -5554898.98445  23286672.962    23286684.2224
  21260917.507   -17623069.425 9 -13713734.43947  21260917.363    21260926.2924
  20405662.621   -24306543.326 9 -18919186.54347  20405662.544    20405671.3074
  24217334.610     -960971.649 7   -732587.97945  24217333.828    24217346.6494
  23318294.925    -8511883.817 7  -6601321.30845  23318294.551    23318307.4744
 00  9 14  0 44  0.0000000  0  9 13 08 01 28 03 27 19 22 31
  20765812.503   -22482142.729 9 -17499232.83647  20765812.807    20765819.8874
  22495301.554    -8328736.849 8  -6465363.08746  22495301.067    22495312.2644
  21152087.343   -17734751.164 9 -13806538.12147  21152087.025    21152096.3364
  21564919.432   -18407895.078 8 -14007017.00247  21564919.147    21564927.0774
  23282243.395    -7167540.836 8  -5573038.30445  23282243.069    23282254.3534
  21253060.935   -17664356.036 9 -13745905.79347  21253060.762    21253069.6724
  20406671.588   -24301241.258 9 -18915055.06247  20406671.495    20406680.2384
  24238336.158     -850608.105 7   -646590.51745  24238335.419    24238348.1974
  23302491.848    -8594930.008 8  -6666032.46445  23302491.332    23302504.1164
 00  9 14  0 44 30.0000000  0  9 13 08 01 28 03 27 19 22 31
  20759043.402   -22517714.424 9 -17526951.01847  20759043.693    20759050.7884
  22480911.262    -8404357.537 8  -6524288.23746  22480910.790    22480922.0934
  21162287.124   -17681150.806 9 -13764771.64647  21162286.864    21162296.2394
  21575972.183   -18349811.955 8 -13961757.46447  21575971.985    21575979.9794
  23277911.166    -7190305.032 8  -5590776.58545  23277910.988    23277922.4884
  21245243.022   -17705439.800 9 -13777919.08147  21245242.795    21245251.6604
  20407731.005   -24295674.010 9 -18910716.94647  20407730.912    20407739.6484
  24259362.303     -740116.232 7   -560493.07645  24259361.513    24259374.1584
  23286738.922    -8677711.434 8  -6730537.33945  23286738.507    23286751.1324
 00  9 14  0 45  0.0000000  0  9 13 08 01 28 03 27 19 22 31
  20752347.155   -22552903.411 9 -17554370.99147  20752347.439    20752354.5504
  22466553.269    -8479809.646 8  -6583082.03346  22466552.709    22466563.9144
  21172558.098   -17627176.734 9 -13722713.96647  21172557.813    21172567.2054
  21587104.405   -18291311.523 8 -13916172.74247  21587104.269    21587112.3144
  23273675.866    -7212560.660 8  -5608118.56645  23273675.710    23273687.3774
  21237462.370   -17746327.611 9 -13809779.68847  21237462.111    21237470.9444
  20408839.500   -24289848.865 9 -18906177.87047  20408839.424    20408848.1584
  24280410.860     -629505.542 7   -474303.00845  24280410.111    24280422.7604
  23271035.558    -8760231.820 8  -6794838.71145  23271035.137    23271047.8814
 00  9 14  0 45 30.0000000  0  9 13 08 01 28 03 27 19 22 31
  20745723.760   -22587709.626 9 -17581492.69747  20745724.024    20745731.1224
  22452227.364    -8555093.525 8  -6641744.73646  22452226.697    22452237.7244
  21182900.017   -17572829.900 9 -13680365.81647  21182899.744    21182909.0954
  21598315.604   -18232396.621 8 -13870265.06347  21598315.407    21598323.5054
  23269537.840    -7234306.558 8  -5625063.36045  23269537.545    23269549.0974
  21229718.735   -17787020.137 9 -13841488.11447  21229718.532    21229727.4314
  20409996.915   -24283766.798 9 -18901438.60048  20409996.813    20410005.5374
  24301481.345     -518779.423 7   -388023.03045  24301480.795    24301493.2994
  23255382.508    -8842488.520 8  -6858934.70345  23255382.223    23255394.6764
 00  9 14  0 46  0.0000000  0  9 13 08 01 28 03 27 19 22 31
  20739173.908   -22622129.413 9 -17608313.28747  20739174.148    20739181.2444
  22437933.507    -8630207.223 8  -6700274.83346  22437932.942    22437944.0184
  21193313.054   -17518109.054 9 -13637726.24047  21193312.775    21193322.1444
  21609605.550   -18173068.128 9 -13824035.09647  21609605.292    21609613.4164
  23265497.280    -7255540.082 8  -5641608.89445  23265496.982    23265508.3804
  21222012.599   -17827515.802 9 -13873043.14447  21222012.387    21222021.3594
  20411203.490   -24277426.472 9 -18896498.08648  20411203.338    20411212.0514
  24322573.765     -407939.188 7   -301654.07945  24322573.064    24322585.7474
  23239780.381    -8924476.897 8  -6922821.56545  23239780.135    23239792.6184
 00  9 14  0 46 30.0000000  0  9 13 08 01 28 03 27 19 22 31
  20732697.853   -22656161.284 9 -17634831.61047  20732698.112    20732705.2134
  22423672.276    -8705150.566 8  -6758672.18046  22423671.715    22423682.7204
  21203797.178   -17463014.924 9 -13594795.79747  21203796.907    21203806.2344
  21620973.736   -18113328.253 9 -13777484.56747  21620973.461    21620981.5804
  23261554.426    -7276259.851 8  -5657754.12045  23261554.151    23261565.3424
  21214343.920   -17867814.584 9 -13904444.76447  21214343.676    21214352.7464
  20412459.046   -24270828.332 9 -18891356.68148  20412458.929    20412467.6404
  24343687.053     -296987.548 7   -215198.39345  24343686.496    24343699.4274
  23224229.953    -9006193.630 8  -6986496.78145  23224229.671    23224242.3694
 00  9 14  0 47  0.0000000  0  9 13 08 01 28 03 27 19 22 31
  20726296.167   -22689802.547 9 -17661045.56547  20726296.384    20726303.4744
  22409443.553    -8779922.233 8  -6816935.75246  22409443.086    22409454.0184
  21214352.416   -17407546.904 9 -13551574.00347  21214352.130    21214361.4534
  21632419.959   -18053178.280 8 -13730614.48747  21632419.657    21632427.7574
  23257709.747    -7296463.361 8  -5673497.04345  23257709.513    23257720.6604
  21206712.944   -17907915.398 9 -13935692.11247  21206712.719    21206721.7764
  20413763.809   -24263971.639 9 -18886013.80048  20413763.705    20413772.4234
  24364821.452     -185925.639 7   -128656.72145  24364820.946    24364833.8024
  23208731.959    -9087634.659 8  -7049957.14845  23208731.799    23208744.4934
 00  9 14  0 47 30.0000000  0  9 13 08 01 28 03 27 19 22 31
  20719968.862   -22723052.258 9 -17686954.40847  20719969.114    20719976.2194
  22395247.595    -8854522.282 8  -6875065.60346  22395247.143    22395257.8974
  21224978.731   -17351705.580 8 -13508061.32347  21224978.403    21224987.7414
  21643943.695   -17992620.747 9 -13683426.82147  21643943.390    21643951.4784
  23253963.579    -7316149.596 8  -5688836.91745  23253963.347    23253974.4754
  21199119.622   -17947818.353 9 -13966785.29147  21199119.425    21199128.4354
  20415117.701   -24256857.126 9 -18880470.02548  20415117.558    20415126.2914
  24385976.462      -74756.129 7    -42031.23045  24385975.820    24385988.9104
  23193287.013    -9168796.993 7  -7113200.35145  23193286.932    23193299.5024
 00  9 14  0 48  0.0000000  0  9 13 08 01 28 03 27 19 22 31
  20713716.388   -22755908.916 9 -17712556.98647  20713716.692    20713723.7634
  22381084.128    -8928950.625 8  -6933061.63746  22381083.718    22381094.5794
  21235675.925   -17295491.537 9 -13464258.21847  21235675.618    21235684.9564
  21655544.562   -17931657.915 8 -13635923.33847  21655544.279    21655552.3444
  23250315.926    -7335317.765 8  -5703773.10945  23250315.672    23250326.7684
  21191564.057   -17987523.630 9 -13997724.44047  21191563.806    21191572.7444
  20416520.570   -24249485.088 9 -18874725.58448  20416520.447    20416529.1524
  24407151.238       36517.981 7     44675.77045  24407150.531    24407163.6994
  23177895.896    -9249677.576 8  -7176224.00145  23177895.707    23177908.3594
 00  9 14  0 48 30.0000000  0  9 13 08 01 28 03 27 19 22 31
  20707539.208   -22788370.295 9 -17737851.54647  20707539.509    20707546.5694
  22366953.887    -9003206.545 8  -6990923.32146  22366953.321    22366964.1714
  21246444.012   -17238904.960 9 -13420164.81847  21246443.723    21246453.0604
  21667222.145   -17870291.975 9 -13588105.74247  21667221.854    21667229.9254
  23246767.133    -7353966.356 8  -5718304.42945  23246766.998    23246778.0874
  21184046.013   -18027030.911 9 -14028509.30047  21184045.790    21184054.7124
  20417972.374   -24241855.694 9 -18868780.60048  20417972.262    20417980.9864
  24428345.535      147894.004 7    131462.20745  24428344.949    24428357.9064
  23162559.085    -9330273.107 8  -7239025.56445  23162558.775    23162571.3844
 00  9 14  0 49  0.0000000  0  9 13 08 01 28 03 27 19 22 31
  20701437.462   -22820435.069 9 -17762837.06547  20701437.753    20701444.8034
  22352856.193    -9077289.680 8  -7048650.37446  22352855.710    22352866.5204
  21257283.006   -17181945.924 9 -13375781.19747  21257282.709    21257292.0344
  21678976.075   -17808524.988 8 -13539975.64847  21678975.737    21678983.7954
  23243317.643    -7372093.775 8  -5732429.62145  23243317.347    23243328.5254
  21176565.755   -18066339.959 9 -14059139.70547  21176565.539    21176574.3994
  20419473.141   -24233969.067 9 -18862635.18048  20419473.013    20419481.7404
  24449558.991      259369.926 7    218326.48145  24449558.283    24449571.1434
  23147277.135    -9410580.137 8  -7301602.28945  23147276.685    23147289.2524
 00  9 14  0 49 30.0000000  0  9 13 08 01 28 03 27 19 22 31
  20695411.610   -22852101.122 9 -17787511.89547  20695411.895    20695418.9384
  22338791.564    -9151199.465 8  -7106242.34546  22338791.077    22338801.8804
  21268192.837   -17124614.709 9 -13331107.57047  21268192.547    21268201.8904
  21690805.882   -17746358.860 8 -13491534.52947  21690805.578    21690813.6164
  23239967.392    -7389698.248 8  -5746147.31745  23239967.146    23239978.5814
  21169123.280   -18105450.494 9 -14089615.41147  21169123.031    21169131.8404
  20421022.946   -24225824.911 9 -18856289.08948  20421022.820    20421031.5554
  24470790.797      370943.906 7    305267.15345  24470790.284    24470803.0144
  23132050.683    -9490594.927 8  -7363951.33045  23132050.185    23132062.6634
 00  9 14  0 50  0.0000000  0  9 13 08 01 28 03 27 19 22 31
  20689461.951   -22883366.933 9 -17811874.84547  20689462.233    20689469.2534
  22324759.967    -9224935.433 8  -7163698.83246  22324759.501    22324770.2694
  21279173.352   -17066911.865 8 -13286144.36547  21279173.065    21279182.4144
  21702711.326   -17683795.813 8 -13442784.12747  21702711.006    21702718.9754
  23236717.117    -7406778.527 8  -5759456.59845  23236716.876    23236728.2284
  21161718.497   -18144362.194 9 -14119936.18447  21161718.327    21161727.1484
  20422621.667   -24217423.489 9 -18849742.53448  20422621.563    20422630.3004
  24492041.195      482613.407 7    392282.25845  24492040.393    24492053.0954
  23116880.467    -9570314.434 8  -7426070.23345  23116879.948    23116892.5384
 00  9 14  0 50 30.0000000  0  9 13 08 01 28 03 27 19 22 31
  20683588.706   -22914230.927 9 -17835924.69848  20683589.009    20683596.0034
  22310761.648    -9298497.273 8  -7221019.65746  22310761.132    22310771.7744
  21290224.471   -17008837.742 8 -13240891.85047  21290224.205    21290233.6194
  21714691.832   -17620837.994 8 -13393726.11247  21714691.502    21714699.4414
  23233566.744    -7423333.192 8  -5772356.28645  23233566.606    23233578.0074
  21154351.739   -18183074.734 9 -14150101.76847  21154351.567    21154360.4024
  20424269.340   -24208764.994 9 -18842995.66347  20424269.203    20424277.9344
  24513308.595      594375.922 7    479369.85445  24513308.130    24513320.9044
  23101767.027    -9649735.224 8  -7487956.40845  23101766.500    23101779.1614
 00  9 14  0 51  0.0000000  0  8 13 08 01 28 03 27 19 31
  20677792.231   -22944691.523 9 -17859660.21648  20677792.542    20677799.5384
  22296796.500    -9371884.618 8  -7278204.50846  22296795.989    22296806.6244
  21301346.201   -16950392.895 8 -13195350.46447  21301345.925    21301355.3794
  21726746.978   -17557487.767 8 -13344362.33047  21726746.706    21726754.6204
  23230516.568    -7439361.515 8  -5784845.82345  23230516.429    23230527.8004
  21147022.887   -18221588.212 9 -14180112.24447  21147022.691    21147031.5114
  20425965.795   -24199849.828 9 -18836048.78647  20425965.678    20425974.4334
  23086711.168    -9728854.180 8  -7549607.39545  23086710.613    23086723.1724
 00  9 14  0 51 30.0000000  0  8 13 08 01 28 03 27 19 31
  20672072.945   -22974746.321 9 -17883079.52948  20672073.272    20672080.2854
  22282864.580    -9445097.007 8  -7335253.05646  22282864.104    22282874.7394
  21312538.476   -16891577.270 8 -13149520.15747  21312538.197    21312547.6654
  21738876.469   -17493746.974 8 -13294694.20447  21738876.169    21738884.1024
  23227567.023    -7454861.498 8  -5796923.67945  23227566.851    23227578.1454
  21139732.001   -18259902.277 9 -14209967.33647  21139731.788    21139740.6014
  20427711.139   -24190677.858 9 -18828901.80148  20427711.080    20427719.7924
  23071713.186    -9807667.511 8  -7611020.19646  23071712.816    23071725.4554
 00  9 14  0 52  0.0000000  0  8 13 08 01 28 03 27 19 31
  20666431.023   -23004395.109 9 -17906182.47848  20666431.317    20666438.3254
  22268965.948    -9518134.361 8  -7392165.19746  22268965.466    22268976.1254
  21323801.145   -16832391.776 8 -13103401.64047  21323800.839    21323810.3354
  21751079.747   -17429618.306 8 -13244723.85047  21751079.481    21751087.4384
  23224718.049    -7469832.501 8  -5808589.33845  23224717.923    23224729.2254
  21132478.959   -18298017.038 9 -14239667.12547  21132478.719    21132487.5624
  20429505.309   -24181249.753 9 -18821555.23648  20429505.218    20429513.8954
  23056774.243    -9886172.535 8  -7672192.78746  23056773.808    23056786.2954
 00  9 14  0 52 30.0000000  0  8 13 08 01 28 03 27 19 31
  20660866.603   -23033636.122 9 -17928967.68748  20660866.919    20660873.8844
  22255100.688    -9590996.435 8  -7448940.77446  22255100.245    22255110.9214
  21335133.996   -16772837.146 8 -13056995.48247  21335133.724    21335143.2504
  21763356.435   -17365104.196 8 -13194453.14447  21763356.142    21763364.1284
  23221969.960    -7484273.634 8  -5819842.12045  23221969.855    23221981.1624
  21125263.910   -18335932.543 9 -14269211.65947  21125263.624    21125272.4484
  20431348.124   -24171565.854 9 -18814009.35148  20431348.002    20431356.6734
  23041894.185    -9964366.032 8  -7733122.61345  23041893.869    23041906.3584
 00  9 14  0 53  0.0000000  0  8 13 08 01 28 03 27 19 31
  20655380.279   -23062466.949 9 -17951433.26048  20655380.588    20655387.5504
  22241268.838    -9663682.741 8  -7505579.36246  22241268.380    22241279.1064
  21346537.001   -16712913.829 8 -13010302.03447  21346536.740    21346546.3434
  21775705.996   -17300206.734 8 -13143883.73647  21775705.743    21775713.7414
  23219322.863    -7498183.480 8  -5830680.92345  23219322.767    23219334.1064
  21118086.749   -18373648.455 9 -14298600.65347  21118086.473    21118095.3314
  20433239.587   -24161626.352 9 -18806264.28847  20433239.433    20433248.1104
  23027074.301   -10042244.660 8  -7793807.08846  23027073.949    23027086.5344
 00  9 14  0 53 30.0000000  0  8 13 08 01 28 03 27 19 31
  20649972.221   -23090886.453 9 -17973578.32047  20649972.522    20649979.4964
  22227470.494    -9736192.864 8  -7562080.67546  22227470.034    22227480.9094
  21358010.170   -16652621.913 8 -12963321.37547  21358009.938    21358019.5754
  21788128.167   -17234927.966 8 -13093017.19247  21788127.863    21788135.8884
  23216777.140    -7511560.958 8  -5841104.87845  23216777.080    23216788.5174
  21110947.654   -18411164.374 9 -14327833.80747  21110947.405    21110956.2314
  20435179.641   -24151430.990 9 -18798319.86547  20435179.550    20435188.2074
  23012314.792   -10119805.383 8  -7854243.86246  23012314.516    23012327.0254
 00  9 14  0 54  0.0000000  0  8 13 08 01 28 03 27 19 31
  20644642.885   -23118892.274 9 -17995401.03248  20644643.201    20644650.1444
  22213705.815    -9808525.678 8  -7618443.80446  22213705.422    22213716.3924
  21369553.492   -16591961.349 8 -12916053.45847  21369553.286    21369562.9324
  21800622.501   -17169269.543 8 -13041854.81447  21800622.213    21800630.3194
  23214333.307    -7524404.031 8  -5851112.41646  23214333.192    23214344.5764
  21103846.764   -18448479.714 9 -14356910.67447  21103846.531    21103855.3274
  20437168.450   -24140979.694 9 -18790176.00547  20437168.363    20437177.0324
  22997616.666   -10197044.075 8  -7914429.69846  22997616.432    22997628.8394
 00  9 14  0 54 30.0000000  0  9 13 08 01 28 03 27 19 10 31
  20639392.443   -23146483.740 9 -18016900.87348  20639392.726    20639399.6544
  22199974.863    -9880681.812 8  -7674669.25146  22199974.478    22199985.5544
  21381166.719   -16530933.849 8 -12868499.62147  21381166.506    21381176.1774
  21813188.485   -17103234.752 8 -12990399.16547  21813188.204    21813196.3774
  23211991.196    -7536712.782 8  -5860703.60346  23211991.132    23212002.2724
  21096783.948   -18485595.144 9 -14385831.76847  21096783.721    21096792.4634
  20439205.771   -24130273.521 9 -18781833.54147  20439205.682    20439214.3434
  24165241.209    -1207628.49244                  24165237.704    24165250.2394
  22982980.350   -10273958.444 8  -7974362.83846  22982980.034    22982992.3344
 00  9 14  0 55  0.0000000  0  9 13 08 01 28 03 27 19 10 31
  20634220.952   -23173659.959 9 -18038077.14148  20634221.236    20634228.1774
  22186277.585    -9952661.466 8  -7730757.17946  22186277.200    22186288.1684
  21392849.538   -16469540.301 8 -12820660.54047  21392849.339    21392859.0364
  21825825.693   -17036826.372 8 -12938652.40447  21825825.355    21825833.5374
  23209750.855    -7548486.638 8  -5869877.98846  23209750.684    23209761.7834
  21089758.999   -18522511.014 9 -14414597.35247  21089758.804    21089767.6264
  20441291.547   -24119313.130 9 -18773292.98147  20441291.379    20441300.0274
  24152022.778    -1631012.89117  -1261754.37345  24152021.563    24152034.2344
  22968406.242   -10350545.877 8  -8034041.19046  22968405.824    22968418.0434
 00  9 14  0 55 30.0000000  0  9 13 08 01 28 03 27 19 10 31
  20629128.717   -23200419.815 9 -18058928.97348  20629129.001    20629135.9654
  22172613.881   -10024464.883 8  -7786707.78746  22172613.429    22172624.2754
  21404601.916   -16407781.697 8 -12772537.00447  21404601.683    21404611.3324
  21838533.394   -16970047.222 8 -12886616.74347  21838533.048    21838541.2124
  23207612.173    -7559725.237 8  -5878635.31046  23207612.085    23207622.9984
  21082771.987   -18559227.804 9 -14443207.81147  21082771.811    21082780.6454
  20443425.445   -24108099.511 9 -18764555.09847  20443425.271    20443433.9424
  24138886.199    -1700042.067 7  -1315543.31645  24138884.868    24138897.2094
  22953894.734   -10426803.798 8  -8093462.81646  22953894.290    22953906.5044
 00  9 14  0 56  0.0000000  0  9 13 08 01 28 03 27 19 10 31
  20624116.203   -23226760.876 9 -18079454.47048  20624116.491    20624123.4554
  22158983.796   -10096090.820 8  -7842520.08046  22158983.355    22158994.1554
  21416423.799   -16345657.625 8 -12724128.69947  21416423.608    21416433.2024
  21851311.295   -16902898.838 8 -12834293.35847  21851310.982    21851319.1404
  23205575.861    -7570426.402 8  -5886973.84445  23205575.735    23205586.5334
  21075823.111   -18595744.390 9 -14471662.27547  21075822.921    21075831.7254
  20445607.660   -24096631.757 9 -18755619.18847  20445607.530    20445616.1894
  24125833.011    -1768635.708 7  -1368992.88645  24125832.224    24125844.3824
  22939446.483   -10502727.942 8  -8152624.31546  22939446.232    22939458.4714
 00  9 14  0 56 30.0000000  0  9 13 08 01 28 03 27 19 10 31
  20619183.704   -23252681.414 9 -18099652.28848  20619183.986    20619190.9534
  22145387.744   -10167538.389 8  -7898193.42846  22145387.288    22145397.9874
  21428315.264   -16283168.185 8 -12675435.69047  21428315.016    21428324.6124
  21864159.190   -16835382.668 8 -12781683.38747  21864158.888    21864167.0754
  23203641.940    -7580588.759 8  -5894892.52045  23203641.863    23203652.5214
  21068912.472   -18632060.067 9 -14499960.18947  21068912.266    21068921.0394
  20447838.346   -24084909.394 9 -18746484.88047  20447838.216    20447846.8824
  24112863.381    -1836791.350 7  -1422101.12345  24112862.762    24112874.7224
  22925062.883   -10578314.619 8  -8211522.89346  22925062.560    22925074.4324
 00  9 14  0 57  0.0000000  0  9 13 08 01 28 03 27 19 10 31
  20614331.646   -23278179.032 9 -18119520.55848  20614331.905    20614338.8934
  22131825.775   -10238806.595 8  -7953727.00046  22131825.356    22131835.9924
  21440276.155   -16220313.269 8 -12626457.88947  21440275.946    21440285.5314
  21877076.728   -16767500.224 8 -12728788.00447  21877076.515    21877084.7084
  23201810.791    -7590210.636 8  -5902390.04445  23201810.732    23201821.2864
  21062040.184   -18668173.889 9 -14528100.80847  21062040.013    21062048.8024
  20450117.625   -24072931.888 9 -18737151.76147  20450117.498    20450126.1444
  24099977.463    -1904505.935 8  -1474865.65445  24099976.923    24099988.8874
  22910743.943   -10653560.239 8  -8270155.68646  22910743.713    22910755.5764
 00  9 14  0 57 30.0000000  0  9 13 08 01 28 03 27 19 10 31
  20609560.416   -23303251.900 9 -18139057.85048  20609560.688    20609567.6954
  22118298.147   -10309894.931 8  -8009120.40246  22118297.621    22118308.1134
  21452306.506   -16157093.644 8 -12577195.89547  21452306.287    21452315.8944
  21890063.552   -16699254.218 8 -12675609.32547  21890063.275    21890071.4694
  23200082.678    -7599291.087 8  -5909465.69545  23200082.707    23200093.2814
  21055206.386   -18704085.758 9 -14556084.06047  21055206.194    21055214.9824
  20452445.297   -24060699.666 9 -18727620.15847  20452445.187    20452453.8414
  24087176.104    -1971777.129 8  -1527284.70145  24087175.456    24087187.7324
  22896490.735   -10728461.484 8  -8328520.15846  22896490.429    22896502.2314
 00  9 14  0 58  0.0000000  0  9 13 08 01 28 03 27 19 10 31
  20604870.232   -23327899.015 9 -18158263.38548  20604870.505    20604877.4744
  22104804.810   -10380803.110 8  -8064373.42846  22104804.223    22104814.5684
  21464406.184   -16093509.860 8 -12527650.15747  21464405.911    21464415.5214
  21903119.179   -16630646.786 8 -12622149.01547  21903118.886    21903127.0374
  23198457.665    -7607829.423 7  -5916118.90645  23198457.712    23198468.3384
  21048411.009   -18739795.510 9 -14583909.83047  21048410.848    21048419.6064
  20454821.407   -24048213.137 9 -18717890.39647  20454821.282    20454829.9414
  24074459.741    -2038602.604 8  -1579356.45845  24074459.139    24074471.0764
  22882303.560   -10803015.129 8  -8386613.75946  22882303.241    22882315.0234
 00  9 14  0 58 30.0000000  0  9 13 08 01 28 03 27 19 10 31
  20600261.332   -23352119.016 9 -18177136.10648  20600261.606    20600268.5414
  22091345.487   -10451531.204 8  -8119486.12346  22091345.020    22091355.3354
  21476575.057   -16029562.785 8 -12477821.31747  21476574.687    21476584.2934
  21916243.143   -16561680.475 8 -12568409.07447  21916242.771    21916250.8994
  23196935.816    -7615824.911 7  -5922349.10445  23196935.886    23196946.7244
  21041654.168   -18775303.302 9 -14611578.22347  21041653.946    21041662.6594
  20457245.799   -24035472.751 9 -18707962.81947  20457245.674    20457254.3554
  24061828.353    -2104980.888 7  -1631079.74845  24061827.743    24061839.5594
  22868183.111   -10877218.251 8  -8444434.24346  22868182.827    22868194.4404
 00  9 14  0 59  0.0000000  0  9 13 08 01 28 03 27 19 10 31
  20595734.306   -23375908.472 9 -18195673.33848  20595734.610    20595741.5214
  22077920.953   -10522077.252 8  -8174456.97946  22077920.464    22077930.8514
  21488813.120   -15965251.496 8 -12427708.68047  21488812.765    21488822.3774
  21929435.087   -16492356.053 8 -12514390.06947  21929434.798    21929442.9204
  23195517.914    -7623275.190 7  -5928154.48145  23195517.838    23195528.9034
  21034936.026   -18810607.385 9 -14639087.87647  21034935.767    21034944.5404
  20459718.811   -24022477.008 9 -18697836.26648  20459718.721    20459727.4134
  24049282.724    -2170908.493 7  -1682451.84445  24049282.119    24049293.9294
  22854130.192   -10951066.011 8  -8501977.80146  22854129.885    22854141.4924
 00  9 14  0 59 30.0000000  0  9 13 08 01 28 03 27 19 10 31
  20591289.073   -23399268.247 9 -18213875.75148  20591289.377    20591296.2834
  22064530.757   -10592442.394 8  -8229286.85146  22064530.314    22064540.7834
  21501120.001   -15900578.295 9 -12377314.04247  21501119.705    21501129.3384
  21942694.427   -16422677.844 8 -12460095.39047  21942694.119    21942702.2734
  23194203.627    -7630181.066 7  -5933535.65145  23194203.458    23194214.7674
  21028256.359   -18845709.255 9 -14666439.97747  21028256.141    21028264.8794
  20462240.120   -24009227.538 9 -18687512.00148  20462240.006    20462248.7254
  24036823.179    -2236384.553 7  -1733472.11345  24036822.494    24036834.3464
  22840145.266   -11024557.061 8  -8559243.40946  22840144.927    22840156.5334
 00  9 14  1  0  0.0000000  0  9 13 08 01 28 03 27 19 10 31
  20586926.030   -23422196.282 9 -18231741.74048  20586926.318    20586933.2324
  22051175.070   -10662626.536 8  -8283975.69446  22051174.620    22051185.1474
  21513495.737   -15835543.612 8 -12326637.71947  21513495.387    21513505.1224
  21956020.862   -16352647.700 8 -12405526.47747  21956020.493    21956028.6394
  23192992.875    -7636541.732 7  -5938491.96745  23192992.796    23193004.3064
  21021615.231   -18880608.637 9 -14693634.28947  21021615.009    21021623.7294
  20464809.642   -23995724.626 9 -18676990.25348  20464809.537    20464818.2844
  24024449.789    -2301407.132 7  -1784139.03445  24024449.041    24024460.9664
  22826228.617   -11097688.360 8  -8616228.67946  22826228.282    22826239.9704
 00  9 14  1  0 30.0000000  0  9 13 08 01 28 03 27 19 10 31
  20582645.196   -23444692.080 9 -18249270.92048  20582645.481    20582652.4054
  22037853.842   -10732630.113 8  -8338523.82446  22037853.302    22037863.8594
  21525939.927   -15770149.195 8 -12275681.08847  21525939.572    21525949.3264
  21969413.534   -16282268.970 8 -12350685.94247  21969413.142    21969421.2924
  23191885.965    -7642357.405 7  -5943023.61145  23191885.921    23191897.7664
  21015012.393   -18915306.369 9 -14720671.46347  21015012.170    21015020.9334
  20467427.079   -23981969.688 9 -18666272.11848  20467426.995    20467435.7614
  24012162.577    -2365975.701 7  -1834452.15045  24012161.957    24012174.0254
  22812380.927   -11170457.813 8  -8672932.01346  22812380.608    22812392.2324
 00  9 14  1  1  0.0000000  0  9 13 08 01 28 03 27 19 10 31
  20578447.025   -23466753.678 9 -18266461.76248  20578447.287    20578454.2384
  22024567.050   -10802451.863 8  -8392930.30746  22024566.610    22024577.0734
  21538452.583   -15704394.707 8 -12224443.88847  21538452.260    21538462.0524
  21982872.233   -16211543.005 8 -12295574.83147  21982871.865    21982880.0454
  23190883.343    -7647626.175 8  -5947129.10645  23190883.355    23190895.1454
  21008448.243   -18949801.012 9 -14747550.39347  21008448.034    21008456.8194
  20470092.690   -23967961.696 9 -18655356.79748  20470092.630    20470101.3844
  23999962.484    -2430086.499 7  -1884408.58345  23999962.032    23999974.0314
  22798602.694   -11242860.978 8  -8729349.91346  22798602.436    22798614.0574
 00  9 14  1  1 30.0000000  0  9 13 08 01 28 03 27 19 10 31
  20574331.577   -23488380.604 9 -18283313.90148  20574331.836    20574338.7544
  22011314.727   -10872092.451 8  -8447195.62146  22011314.334    22011324.7494
  21551033.439   -15638281.991 8 -12172927.53847  21551033.160    21551042.9154
  21996396.248   -16140473.236 8 -12240195.82447  21996395.932    21996404.1394
  23189984.898    -7652348.272 8  -5950808.59945  23189984.877    23189996.6354
  21001922.626   -18984093.350 9 -14774271.68447  21001922.402    21001931.1864
  20472806.165   -23953702.121 9 -18644245.43948  20472806.121    20472814.8984
  23987849.905    -2493738.930 7  -1934007.88345  23987849.458    23987861.3284
  22784894.712   -11314895.863 8  -8785480.85446  22784894.446    22784906.1524
 00  9 14  1  2  0.0000000  0  9 13 08 01 28 03 27 19 10 31
  20570299.492   -23509569.534 9 -18299824.74748  20570299.728    20570306.6084
  21998097.245   -10941550.069 8  -8501318.36146  21998096.845    21998107.2414
  21563682.506   -15571810.506 8 -12121131.63047  21563682.253    21563692.1044
  22009985.576   -16069060.572 8 -12184549.62847  22009985.294    22009993.5604
  23189191.017    -7656521.497 8  -5954060.40245  23189190.997    23189202.5964
  20995435.765   -19018182.209 9 -14800834.42147  20995435.522    20995444.3044
  20475567.945   -23939189.505 9 -18632936.91348  20475567.839    20475576.5894
  23975825.260    -2556929.430 7  -1983247.12945  23975824.712    23975836.2654
  22771257.690   -11386558.091 8  -8841321.42046  22771257.457    22771269.1104
 00  9 14  1  2 30.0000000  0  9 13 08 01 28 03 27 19 10 31
  20566350.617   -23530320.898 9 -18315994.63048  20566350.872    20566357.7494
  21984914.444   -11010825.707 8  -8555299.29446  21984914.101    21984924.4514
  21576399.606   -15504981.866 8 -12069057.42547  21576399.380    21576409.1884
  22023639.473   -15997308.575 8 -12128639.01947  22023639.222    22023647.5234
  23188501.494    -7660146.484 8  -5956885.03746  23188501.414    23188512.8674
  20988987.379   -19052068.408 9 -14827239.23247  20988987.137    20988995.9474
  20478377.499   -23924425.192 9 -18621432.25848  20478377.374    20478386.1414
  23963888.593    -2619657.014 7  -2032125.69845  23963887.946    23963899.6614
  22757692.144   -11457845.681 8  -8896870.04746  22757691.918    22757703.4054
 00  9 14  1  3  0.0000000  0  9 13 08 01 28 03 27 19 10 31
  20562485.301   -23550632.935 9 -18331822.18048  20562485.578    20562492.4634
  21971766.445   -11079918.535 8  -8609137.78146  21971766.103    21971776.4744
  21589184.550   -15437796.580 8 -12016705.31247  21589184.329    21589194.1634
  22037357.703   -15925219.112 8 -12072465.44147  22037357.405    22037365.7524
  23187916.298    -7663222.436 8  -5959281.81046  23187916.279    23187927.5634
  20982577.759   -19085751.358 9 -14853485.67047  20982577.524    20982586.3024
  20481235.002   -23909408.990 9 -18609731.32348  20481234.846    20481243.6344
  23952040.373    -2681919.354 7  -2080641.77945  23952039.698    23952051.4174
  22744198.395   -11528755.463 8  -8952124.27946  22744198.139    22744209.5554
 00  9 14  1  3 30.0000000  0  9 13 08 01 28 03 27 19 10 31
  20558704.062   -23570503.385 9 -18347305.63948  20558704.345    20558711.2594
  21958653.297   -11148828.217 8  -8662833.55746  21958652.951    21958663.3814
  21602037.243   -15370255.218 8 -11964075.74847  21602037.061    21602046.8964
  22051139.646   -15852794.643 8 -12016030.83047  22051139.384    22051147.7004
  23187435.791    -7665748.323 8  -5961250.00346  23187435.782    23187446.9234
  20976206.857   -19119230.826 9 -14879573.55547  20976206.554    20976215.3854
  20484140.359   -23894141.082 9 -18597834.25548  20484140.235    20484149.0114
  23940281.014    -2743714.649 7  -2128793.84345  23940280.350    23940292.2284
  22730777.312   -11599284.022 8  -9007081.46946  22730776.931    22730788.2724
 00  9 14  1  4  0.0000000  0  9 13 08 01 28 03 27 19 10 31
  20555007.154   -23589930.630 9 -18362443.74048  20555007.435    20555014.3704
  21945575.208   -11217553.941 8  -8716385.99246  21945574.785    21945585.2444
  21614957.764   -15302357.950 8 -11911168.84447  21614957.566    21614967.3754
  22064985.030   -15780036.849 8 -11959336.48446  22064984.779    22064993.0584
  23187059.973    -7667723.029 8  -5962788.69046  23187059.982    23187071.1894
  20969874.687   -19152505.894 9 -14905502.16047  20969874.478    20969883.3244
  20487093.693   -23878621.072 9 -18585740.74447  20487093.580    20487102.3434
  23928610.799    -2805040.567 8  -2176580.22445  23928610.168    23928622.3314
  22717429.125   -11669427.843 8  -9061738.82846  22717428.852    22717440.3484
 00  9 14  1  4 30.0000000  0  9 13 08 01 28 03 27 19 10 31
  20551395.000   -23608912.556 9 -18377234.84348  20551395.295    20551402.2144
  21932532.289   -11286094.041 8  -8769793.79746  21932531.964    21932542.4754
  21627946.024   -15234104.344 8 -11857984.27747  21627945.854    21627955.6274
  22078893.648   -15706946.850 8 -11902383.26446  22078893.380    22078901.6424
  23186789.520    -7669145.043 8  -5963896.70346  23186789.380    23186800.4884
  20963581.802   -19185575.152 9 -14931270.40547  20963581.574    20963590.3854
  20490095.235   -23862848.077 9 -18573450.09947  20490095.102    20490103.8344
  23917030.905    -2865893.808 7  -2223998.29845  23917030.304    23917042.3234
  22704155.039   -11739182.695 8  -9116093.12346  22704154.672    22704166.3024
 00  9 14  1  5  0.0000000  0  9 13 08 01 28 03 27 19 10 31
  20547867.598   -23627449.349 9 -18391679.08548  20547867.867    20547874.7944
  21919524.599   -11354450.068 8  -8823058.17146  21919524.189    21919534.6604
  21641001.631   -15165497.250 8 -11804524.27347  21641001.426    21641011.1614
  22092864.561   -15633529.055 8 -11845174.62846  22092864.368    22092872.6004
  23186623.876    -7670015.632 8  -5964575.02946  23186623.715    23186634.7774
  20957327.651   -19218440.626 9 -14956879.84347  20957327.434    20957336.2984
  20493144.463   -23846824.367 9 -18560964.10047  20493144.331    20493153.0554
  23905540.974    -2926274.350 7  -2271047.96745  23905540.239    23905552.1404
  22690955.197   -11808547.492 8  -9170143.46246  22690954.779    22690966.4894
 00  9 14  1  5 30.0000000  0  9 13 08 01 28 03 27 19 10 31
  20544425.031   -23645539.860 9 -18405775.56948  20544425.321    20544432.2874
  21906551.915   -11422621.554 8  -8876178.73546  21906551.500    21906562.0394
  21654124.350   -15096537.207 8 -11750789.24047  21654124.112    21654133.8854
  22106897.567   -15559785.485 8 -11787712.13946  22106897.343    22106905.5134
  23186563.264    -7670333.961 8  -5964823.04446  23186563.057    23186574.1214
  20951112.481   -19251101.674 9 -14982329.99547  20951112.267    20951121.1154
  20496241.403   -23830549.725 9 -18548282.56247  20496241.268    20496249.9844
  23894141.349    -2986179.917 7  -2317727.56645  23894140.711    23894152.3524
  22677830.329   -11877519.006 8  -9223887.37146  22677829.866    22677841.4604
 00  9 14  1  6  0.0000000  0  9 13 08 01 28 03 27 19 10 31
  20541068.031   -23663180.915 9 -18419521.84148  20541068.344    20541075.3134
  21893614.798   -11490606.701 8  -8929154.13546  21893614.406    21893624.7934
  21667314.321   -15027223.610 8 -11696778.70847  21667314.081    21667323.9264
  22120992.413   -15485717.209 8 -11729996.64346  22120992.066    22121000.2564
  23186608.034    -7670098.132 8  -5964639.25946  23186607.845    23186618.9314
  20944936.481   -19283556.709 9 -15007619.62347  20944936.252    20944945.0544
  20499386.429   -23814022.644 9 -18535404.33147  20499386.280    20499394.9774
  23882832.413    -3045607.157 7  -2364034.38845  23882831.960    23882843.6194
  22664781.092   -11946092.613 8  -9277321.20846  22664780.659    22664792.2404
 00  9 14  1  6 30.0000000  0  9 13 08 01 28 03 27 19 10 31
  20537796.481   -23680372.888 9 -18432918.16948  20537796.799    20537803.7734
  21880713.021   -11558406.586 8  -8981985.12646  21880712.499    21880722.8194
  21680571.174   -14957558.523 8 -11642494.30247  21680570.933    21680580.8184
  22135148.258   -15411327.817 8 -11672030.91946  22135147.866    22135156.0904
  23186758.165    -7669308.911 8  -5964024.24346  23186758.001    23186769.0584
  20938799.469   -19315807.017 9 -15032749.71247  20938799.231    20938807.9814
  20502579.134   -23797244.964 9 -18522330.81947  20502578.990    20502587.6564
  23871614.851    -3104555.641 7  -2409968.19845  23871614.386    23871625.9584
  22651807.767   -12014266.798 8  -9330443.80946  22651807.380    22651818.9384
 00  9 14  1  7  0.0000000  0  9 13 08 01 28 03 27 19 10 31
  20534610.839   -23697113.534 9 -18445962.81548  20534611.155    20534618.1324
  21867846.474   -11626020.451 8  -9034671.19346  21867845.985    21867856.2124
  21693894.915   -14887542.450 8 -11587936.38647  21693894.569    21693904.4624
  22149364.796   -15336619.206 8 -11613816.45046  22149364.494    22149372.7124
  23187013.939    -7667965.589 8  -5962977.46246  23187013.734    23187024.6584
  20932701.637   -19347851.896 9 -15057719.73247  20932701.342    20932710.0504
  20505819.560   -23780216.315 9 -18509061.74947  20505819.457    20505828.1034
  23860488.856    -3163023.084 7  -2455527.15845  23860488.258    23860500.0644
  22638911.298   -12082038.190 8  -9383252.57146  22638910.828    22638922.2094
 00  9 14  1  7 30.0000000  0  9 13 08 01 28 03 27 19 10 31
  20531511.175   -23713402.207 9 -18458655.28248  20531511.510    20531518.4484
  21855015.565   -11693447.796 8  -9087211.91947  21855014.998    21855025.1954
  21707285.175   -14817176.316 8 -11533105.69447  21707284.849    21707294.8124
  22163641.733   -15261594.012 8 -11555355.29246  22163641.350    22163649.6114
  23187375.259    -7666067.781 8  -5961498.61746  23187375.005    23187385.7284
  20926642.846   -19379690.944 9 -15082529.36547  20926642.567    20926651.2424
  20509107.699   -23762936.959 9 -18495597.31747  20509107.580    20509116.2524
  23849454.602    -3221007.950 8  -2500710.10445  23849454.016    23849465.8884
  22626091.955   -12149403.890 8  -9435745.17846  22626091.554    22626102.8494
 00  9 14  1  8  0.0000000  0  9 13 08 01 28 03 27 19 10 31
  20528497.946   -23729237.045 9 -18470994.10948  20528498.276    20528505.1644
  21842220.040   -11760688.108 8  -9139606.90247  21842219.486    21842229.6844
  21720742.033   -14746460.586 8 -11478002.58247  21720741.684    21720751.6034
  22177978.455   -15186254.148 8 -11496648.94446  22177978.065    22177986.3514
  23187841.929    -7663614.394 8  -5959586.84946  23187841.851    23187852.4794
  20920623.257   -19411323.780 9 -15107178.30947  20920623.004    20920631.6934
  20512443.588   -23745406.688 9 -18481937.37447  20512443.471    20512452.1704
  23838512.837    -3278508.021 8  -2545515.26545  23838512.142    23838523.9084
  22613350.333   -12216360.712 8  -9487919.21646  22613349.994    22613361.1874
 00  9 14  1  8 30.0000000  0  9 13 08 01 28 03 27 19 10 31
  20525571.428   -23744616.153 9 -18482977.82148  20525571.752    20525578.6274
  21829460.201   -11827740.714 8  -9191855.62247  21829459.749    21829469.8474
  21734265.162   -14675395.926 8 -11422627.59947  21734264.871    21734274.8464
  22192374.658   -15110601.520 8 -11437698.88646  22192374.289    22192382.6464
  23188414.511    -7660605.056 8  -5957241.88746  23188414.395    23188425.0604
  20914643.133   -19442749.924 9 -15131666.20547  20914642.854    20914651.5024
  20515827.280   -23727625.441 9 -18468081.86047  20515827.108    20515835.8244
  23827663.584    -3335520.906 8  -2589940.79645  23827662.912    23827674.6344
  22600687.350   -12282905.167 8  -9539771.90546  22600686.930    22600698.2074
 00  9 14  1  9  0.0000000  0  9 13 08 01 28 03 27 19 10 31
  20522731.763   -23759538.876 9 -18494605.91148  20522732.058    20522738.9314
  21816736.270   -11894605.342 8  -9243957.86846  21816735.788    21816745.7744
  21747854.657   -14603983.265 8 -11366981.43647  21747854.314    21747864.3094
  22206829.912   -15034638.646 8 -11378507.07046  22206829.562    22206837.9124
  23189092.855    -7657039.316 8  -5954463.35446  23189092.845    23189103.5624
  20908702.226   -19473969.295 9 -15155992.97847  20908701.987    20908710.6514
  20519258.686   -23709593.641 9 -18454031.11547  20519258.513    20519267.1824
  23816907.324    -3392044.934 8  -2633985.40645  23816906.719    23816918.3754
  22588103.418   -12349034.507 8  -9591301.17046  22588103.021    22588114.0184
 00  9 14  1  9 30.0000000  0  9 13 08 01 28 03 27 19 10 31
  20519979.180   -23774003.810 9 -18505877.27748  20519979.464    20519986.3584
  21804048.050   -11961282.216 8  -9295913.80047  21804047.542    21804057.6794
  21761509.962   -14532223.842 8 -11311065.07247  21761509.700    21761519.7144
  22221343.617   -14958368.505 8 -11319075.83746  22221343.284    22221351.7144
  23189877.161    -7652917.388 8  -5951251.43246  23189877.082    23189887.8164
  20902800.676   -19504981.964 9 -15180158.67947  20902800.452    20902809.1254
  20522737.597   -23691311.762 9 -18439785.50047  20522737.434    20522746.0884
  23806244.246    -3448079.382 8  -2677648.52745  23806243.611    23806255.3164
  22575598.945   -12414746.051 8  -9642504.83346  22575598.449    22575609.4494
 00  9 14  1 10  0.0000000  0  9 13 08 01 28 03 27 19 10 31
  20517313.918   -23788009.745 9 -18516790.98348  20517314.219    20517321.1074
  21791395.795   -12027770.122 8  -9347722.49947  21791395.281    21791405.4404
  21775231.437   -14460117.745 8 -11254878.55747  21775231.151    21775241.1024
  22235915.434   -14881792.734 8 -11259406.43446  22235915.146    22235923.6014
  23190767.597    -7648238.155 8  -5947605.23846  23190767.466    23190778.2844
  20896938.677   -19535786.958 9 -15204162.55747  20896938.451    20896947.1174
  20526264.294   -23672779.114 9 -18425344.47747  20526264.083    20526272.7524
  23795674.992    -3503621.169 8  -2720927.78345  23795674.187    23795685.9694
  22563174.539   -12480036.268 8  -9693380.25246  22563174.130    22563184.8774
 00  9 14  1 10 30.0000000  0  9 13 08 01 28 03 27 19 10 31
  20514736.217   -23801555.600 9 -18527346.18848  20514736.533    20514743.3994
  21778779.325   -12094069.574 8  -9399384.36247  21778778.865    21778788.9504
  21789018.458   -14387666.639 8 -11198423.22747  21789018.176    21789028.1224
  22250544.838   -14804914.431 8 -11199501.30846  22250544.648    22250553.0484
  23191764.073    -7643002.418 8  -5943525.43946  23191763.756    23191774.5884
  20891116.078   -19566384.852 9 -15228005.05647  20891115.862    20891124.5504
  20529838.457   -23653996.666 9 -18410708.80947  20529838.279    20529846.9454
  23785199.556    -3558669.467 8  -2763822.49045  23785198.780    23785210.6354
  22550830.774   -12544902.973 8  -9743925.63146  22550830.335    22550841.0724
 00  9 14  1 11  0.0000000  0  9 13 08 01 28 03 27 19 10 31
  20512246.254   -23814640.181 9 -18537541.96248  20512246.597    20512253.4834
  21766198.884   -12160179.599 8  -9450898.59547  21766198.434    21766208.4924
  21802871.168   -14314870.934 8 -11141699.37147  21802870.797    21802880.7354
  22265231.558   -14727735.246 8 -11139361.71846  22265231.421    22265239.7704
  23192866.313    -7637209.107 8  -5939011.14346  23192866.123    23192877.0324
  20885332.960   -19596774.901 9 -15251685.60147  20885332.765    20885341.4834
  20533460.261   -23634964.058 9 -18395878.21447  20533460.091    20533468.7654
  23774818.561    -3613221.919 8  -2806330.80945  23774817.636    23774829.4934
  22538568.235   -12609342.693 8  -9794138.31246  22538567.834    22538578.5984
 00  9 14  1 11 30.0000000  0  9 13 08 01 28 03 27 19 10 31
  20509844.404   -23827261.927 9 -18547377.08948  20509844.770    20509851.6664
  21753654.702   -12226099.881 8  -9502264.99347  21753654.238    21753664.2094
  21816789.111   -14241731.567 8 -11084707.72447  21816788.761    21816798.7774
  22279975.085   -14650257.841 8 -11078989.76046  22279974.944    22279983.2564
  23194074.960    -7630858.061 8  -5934062.25346  23194074.727    23194085.5974
  20879589.489   -19626956.773 9 -15275203.93947  20879589.341    20879598.0524
  20537129.531   -23615681.554 9 -18380852.89147  20537129.401    20537138.0794
  23764532.205    -3667276.805 8  -2848451.44845  23764531.377    23764543.0934
  22526387.464   -12673352.796 8  -9844016.24146  22526387.077    22526397.7034
 00  9 14  1 12  0.0000000  0  9 13 08 01 28 03 27 19 10 31
  20507530.806   -23839420.049 9 -18556850.95348  20507531.172    20507538.0314
  21741146.510   -12291830.553 8  -9553483.63847  21741145.988    21741156.0324
  21830772.190   -14168249.871 8 -11027449.33347  21830771.901    21830781.9894
  22294774.885   -14572484.808 8 -11018387.43846  22294774.738    22294782.9954
  23195389.602    -7623949.317 8  -5928678.81946  23195389.336    23195400.1184
  20873885.620   -19656930.803 9 -15298560.31747  20873885.470    20873894.1464
  20540846.261   -23596149.775 9 -18365633.32947  20540846.158    20540854.8464
  23754340.660    -3720832.993 8  -2890183.49645  23754339.902    23754351.7114
  22514288.842   -12736930.777 8  -9893557.40946  22514288.472    22514299.1424
 00  9 14  1 12 30.0000000  0  9 13 08 01 28 03 27 19 10 31
  20505305.754   -23851112.786 9 -18565962.17448  20505306.112    20505312.9444
  21728674.675   -12357370.528 8  -9604553.69047  21728674.191    21728684.0794
  21844820.434   -14094426.230 8 -10969924.48947  21844820.096    21844830.2444
  22309630.687   -14494417.867 8 -10957556.09346  22309630.464    22309638.6604
  23196810.584    -7616482.053 8  -5922860.11546  23196810.353    23196821.0044
  20868221.529   -19686695.863 9 -15321753.86247  20868221.361    20868230.0344
  20544610.621   -23576368.136 9 -18350219.06547  20544610.502    20544619.2124
  23744244.550    -3773888.176 8  -2931525.12545  23744243.822    23744255.6374
  22502273.175   -12800072.887 8  -9942758.96246  22502272.841    22502283.3764
 00  9 14  1 13  0.0000000  0  9 13 08 01 28 03 27 19 10 31
  20503169.436   -23862339.166 9 -18574710.00548  20503169.771    20503176.6094
  21716239.142   -12422719.827 8  -9655475.16247  21716238.621    21716248.4794
  21858933.395   -14020262.066 8 -10912134.29447  21858933.116    21858943.3124
  22324541.801   -14416059.620 8 -10896497.76246  22324541.581    22324549.8174
  23198337.868    -7608456.553 8  -5916606.45646  23198337.575    23198348.0944
  20862597.174   -19716252.030 9 -15344784.63247  20862597.005    20862605.6884
  20548422.370   -23556337.142 9 -18334610.50147  20548422.273    20548430.9894
  23734244.018    -3826441.008 8  -2972475.32845  23734243.316    23734255.1054
  22490340.785   -12862776.843 8  -9991619.06546  22490340.422    22490351.3014
 00  9 14  1 13 30.0000000  0 10 13 08 01 28 03 02 27 19 10 31
  20501122.206   -23873097.560 9 -18583093.16848  20501122.548    20501129.3744
  21703839.871   -12487877.866 8  -9706247.60847  21703839.435    21703849.2514
  21873111.096   -13945758.105 8 -10854079.33347  21873110.850    21873120.9994
  22339507.835   -14337412.344 8 -10835214.20746  22339507.700    22339515.9274
  23199971.393    -7599872.217 8  -5909917.33646  23199971.124    23199981.6434
  24781037.666     -799840.06244                  24781036.475    24781055.7304
  20857012.690   -19745598.751 9 -15367652.19247  20857012.471    20857021.1604
  20552281.591   -23536056.762 9 -18318807.60447  20552281.472    20552290.2094
  23724339.521    -3878489.212 8  -3013032.30945  23724338.842    23724350.5954
  22478492.548   -12925039.380 8 -10040135.28046  22478492.224    22478502.9914
 00  9 14  1 14  0.0000000  0 10 13 08 01 28 03 02 27 19 10 31
  20499163.759   -23883389.334 9 -18591112.73848  20499164.084    20499170.9214
  21691476.728   -12552846.217 8  -9756872.25247  21691476.303    21691486.1934
  21887352.963   -13870917.041 8 -10795761.67847  21887352.721    21887362.7894
  22354528.189   -14258480.400 8 -10773708.84346  22354527.962    22354536.2814
  23201710.796    -7590731.000 8  -5902794.28746  23201710.610    23201721.0204
  24763343.065    -1148402.52817   -872295.95645  24763341.705    24763359.8644
  20851467.657   -19774737.852 9 -15390357.97047  20851467.450    20851476.1364
  20556187.885   -23515529.030 9 -18302811.97347  20556187.787    20556196.4844
  23714530.814    -3930033.652 8  -3053196.75245  23714530.083    23714541.8974
  22466728.445   -12986859.932 8 -10088307.03446  22466728.108    22466738.7844
 00  9 14  1 14 30.0000000  0 10 13 08 01 28 03 02 27 19 10 31
  20497294.170   -23893214.124 9 -18598768.41848  20497294.488    20497301.3074
  21679149.615   -12617625.016 8  -9807349.19647  21679149.207    21679159.1574
  21901658.697   -13795740.468 8 -10737182.60747  21901658.407    21901668.5304
  22369602.129   -14179266.659 8 -10711983.88846  22369601.857    22369610.2124
  23203556.215    -7581033.291 8  -5895237.61346  23203556.062    23203566.4334
  24745671.806    -1241261.863 7   -944653.47745  24745669.769    24745689.5654
  20845962.095   -19803669.608 9 -15412902.18047  20845961.891    20845970.5764
  20560141.078   -23494754.929 9 -18286624.36547  20560140.991    20560149.6564
  23704818.298    -3981073.144 8  -3092967.76045  23704817.596    23704829.3024
  22455048.974   -13048236.157 8 -10136132.56646  22455048.564    22455059.1474
 00  9 14  1 15  0.0000000  0 10 13 08 01 28 03 02 27 19 10 31
  20495514.084   -23902568.646 9 -18606057.66548  20495514.401    20495521.1964
  21666859.105   -12682212.120 8  -9857676.75547  21666858.706    21666868.6304
  21916028.328   -13720227.673 8 -10678341.53047  21916028.059    21916038.2034
  22384729.669   -14099771.628 8 -10650039.75446  22384729.314    22384737.6824
  23205507.800    -7570777.421 8  -5887246.00646  23205507.612    23205518.0494
  24728025.563    -1333991.869 7  -1016910.20145  24728024.224    24728043.1914
  20840496.429   -19832391.982 9 -15435283.23647  20840496.215    20840504.8954
  20564141.548   -23473732.472 9 -18270243.23147  20564141.431    20564150.1144
  23695202.505    -4031604.572 8  -3132342.86345  23695201.794    23695213.4024
  22443454.879   -13109163.174 8 -10183608.07146  22443454.550    22443464.9794
 00  9 14  1 15 30.0000000  0 10 13 08 01 28 03 02 27 19 10 31
  20493824.077   -23911449.698 9 -18612977.96848  20493824.381    20493831.1664
  21654605.451   -12746605.575 8  -9907853.42447  21654604.999    21654614.9734
  21930462.116   -13644378.069 8 -10619238.01447  21930461.857    21930471.9334
  22399910.514   -14019996.034 8 -10587876.99146  22399910.155    22399918.5494
  23207566.037    -7559961.531 8  -5878818.00246  23207565.827    23207576.1334
  24710404.754    -1426589.641 7  -1089063.91745  24710403.683    24710422.4224
  20835070.986   -19860902.974 9 -15457499.58047  20835070.791    20835079.4504
  20568189.564   -23452460.304 9 -18253667.52747  20568189.389    20568198.0624
  23685684.004    -4081624.624 8  -3171319.49545  23685683.362    23685694.8184
  22431947.025   -13169636.556 8 -10230730.07246  22431946.667    22431957.2084
 00  9 14  1 16  0.0000000  0 10 13 08 01 28 03 02 27 19 10 31
  20492224.465   -23919855.723 9 -18619528.12348  20492224.788    20492231.5414
  21642388.825   -12810804.040 8  -9957878.15447  21642388.386    21642398.3774
  21944959.974   -13568191.656 8 -10559872.05547  21944959.730    21944969.7914
  22415144.438   -13939941.371 8 -10525496.76146  22415144.099    22415152.4924
  23209730.997    -7548584.649 8  -5869952.87046  23209730.797    23209740.9834
  24692809.334    -1519053.116 7  -1161112.95945  24692808.385    24692826.9674
  20829685.922   -19889201.389 9 -15479550.27347  20829685.769    20829694.4254
  20572285.221   -23430937.788 9 -18236896.74547  20572285.013    20572293.6684
  23676263.343    -4131130.598 8  -3209895.53445  23676262.645    23676274.0934
  22420526.271   -13229652.654 8 -10277495.77546  22420525.913    22420536.4144
 00  9 14  1 16 30.0000000  0 10 13 08 01 28 03 02 27 19 10 31
  20490715.252   -23927786.791 9 -18625708.17348  20490715.583    20490722.3174
  21630209.249   -12874808.292 8 -10007751.56447  21630208.758    21630218.7074
  21959521.582   -13491670.567 8 -10500245.29747  21959521.289    21959531.3834
  22430430.772   -13859611.170 8 -10462901.84146  22430430.466    22430438.8834
  23212002.456    -7536648.061 8  -5860651.59946  23212002.285    23212012.5004
  24675239.699    -1611381.838 7  -1233057.01945  24675238.807    24675257.1924
  20824341.235   -19917288.054 9 -15501435.95547  20824341.049    20824349.7044
  20576428.325   -23409165.834 9 -18219931.58947  20576428.095    20576436.7544
  23666940.626    -4180121.998 8  -3248070.63045  23666939.878    23666951.3274
  22409192.892   -13289209.774 8 -10323903.82946  22409192.509    22409203.0504
 00  9 14  1 17  0.0000000  0 10 13 08 01 28 03 02 27 19 10 31
  20489296.870   -23935240.493 9 -18631516.26548  20489297.195    20489303.9154
  21618066.766   -12938617.126 8 -10057472.69147  21618066.274    21618076.2754
  21974146.705   -13414815.137 8 -10440358.03547  21974146.465    21974156.5434
  22445769.325   -13779006.727 8 -10400093.21446  22445769.008    22445777.5004
  23214380.704    -7524150.721 8  -5850913.40546  23214380.489    23214390.7274
  24657696.119    -1703573.849 7  -1304894.55045  24657695.193    24657713.4734
  20819037.020   -19945161.880 9 -15523155.80047  20819036.821    20819045.4424
  20580618.927   -23387143.773 9 -18202771.55247  20580618.774    20580627.4114
  23657716.193    -4228596.674 8  -3285843.05345  23657715.465    23657726.8624
  22397947.507   -13348304.681 8 -10369951.73946  22397946.984    22397957.4884
 00  9 14  1 17 30.0000000  0 10 13 08 01 28 03 02 27 19 10 31
  20487969.173   -23942217.635 9 -18636953.00348  20487969.484    20487976.2384
  21605961.301   -13002231.597 8 -10107042.36147  21605960.825    21605970.8204
  21988835.040   -13337627.799 8 -10380212.13947  21988834.806    21988844.8924
  22461159.271   -13698132.093 8 -10337074.05546  22461158.933    22461167.4824
  23216865.337    -7511094.183 8  -5840739.45046  23216865.059    23216875.3434
  24640178.011    -1795629.511 7  -1376625.83745  24640177.410    24640195.7084
  20813773.160   -19972824.104 9 -15544710.75547  20813772.905    20813781.4654
  20584856.808   -23364873.504 9 -18185418.09847  20584856.670    20584865.2994
  23648590.119    -4276554.402 8  -3323212.70845  23648589.422    23648600.7754
  22386790.146   -13406936.218 8 -10415638.54146  22386789.718    22386800.3474
 00  9 14  1 18  0.0000000  0 10 13 08 01 28 03 02 27 19 10 31
  20486732.463   -23948716.437 9 -18642017.01148  20486732.790    20486739.5794
  21593893.047   -13065650.277 8 -10156459.46347  21593892.579    21593902.5774
  22003586.606   -13260108.522 8 -10319807.58346  22003586.314    22003596.3744
  22476600.314   -13616988.307 8 -10273845.16046  22476600.033    22476608.7314
  23219456.519    -7497477.416 8  -5830128.94746  23219456.235    23219466.6094
  24622686.657    -1887546.369 7  -1448248.98545  24622685.980    24622704.2624
  20808549.724   -20000273.383 9 -15566099.78147  20808549.471    20808558.0094
  20589142.149   -23342353.830 9 -18167870.30647  20589142.024    20589150.6754
  23639562.897    -4323992.787 8  -3360177.68945  23639562.162    23639573.5154
  22375721.784   -13465100.296 8 -10460961.12746  22375721.350    22375731.9154
 00  9 14  1 18 30.0000000  0 10 13 08 01 28 03 02 27 19 10 31
  20485586.823   -23954736.819 9 -18646708.22448  20485587.143    20485593.9594
  21581862.058   -13128873.712 8 -10205724.42847  21581861.558    21581871.4344
  22018400.955   -13182259.152 8 -10259145.82046  22018400.619    22018410.7044
  22492092.054   -13535578.712 8 -10210409.16046  22492091.759    22492100.5174
  23222154.006    -7483301.649 8  -5819082.87046  23222153.718    23222164.1634
  24605221.714    -1979324.147 7  -1519763.81245  24605221.159    24605238.9164
  20803366.765   -20027510.251 9 -15587323.29647  20803366.489    20803374.9714
  20593474.721   -23319585.878 9 -18150129.05847  20593474.624    20593483.2584
  23630634.582    -4370911.223 8  -3396737.48345  23630633.833    23630645.2224
  22364742.689   -13522795.148 8 -10505918.07846  22364742.331    22364752.9124
 00  9 14  1 19  0.0000000  0 10 13 08 01 28 03 02 27 19 10 31
  20484532.462   -23960277.643 9 -18651025.74748  20484532.773    20484539.6044
  21569868.135   -13191901.976 8 -10254837.30347  21569867.602    21569877.4764
  22033277.728   -13104081.258 8 -10198228.05246  22033277.449    22033287.5144
  22507633.773   -13453906.090 8 -10146768.18046  22507633.559    22507642.3724
  23224957.735    -7468567.155 8  -5807601.42146  23224957.467    23224968.0184
  24587783.430    -2070961.839 7  -1591169.47145  24587782.883    24587800.4404
  20798224.164   -20054534.664 9 -15608381.25047  20798223.909    20798232.3694
  20597854.468   -23296570.164 9 -18132194.74247  20597854.372    20597863.0014
  23621805.330    -4417308.230 8  -3432890.95645  23621804.596    23621816.1264
  22353853.386   -13580018.466 8 -10550507.60746  22353853.030    22353863.5274
